| time (UTC) | temp C | wind direction | speed KPH | gust KPH | rain 1hr cm | rain 24hr cm | rain mn cm | humidity % | barometer mb |
| 20260505122501 | 11 | 219 | 0.0 | 0.0 | 0.00 | 0.00 | 0.00 | 51 | 1007.0 |
| 20260505122400 | 11 | 219 | 0.0 | 0.0 | 0.00 | 0.00 | 0.00 | 51 | 1007.0 |
| 20260505122100 | 11 | 219 | 0.0 | 0.0 | 0.00 | 0.00 | 0.00 | 52 | 1007.0 |
| 20260505121900 | 12 | 219 | 0.0 | 0.0 | 0.00 | 0.00 | 0.00 | 52 | 1007.0 |
| 20260505121759 | 12 | 219 | 0.0 | 1.6 | 0.00 | 0.00 | 0.00 | 52 | 1007.0 |
| 20260505121700 | 12 | 219 | 0.0 | 1.6 | 0.00 | 0.00 | 0.00 | 52 | 1007.0 |
| 20260505121600 | 12 | 219 | 0.0 | 1.6 | 0.00 | 0.00 | 0.00 | 52 | 1007.0 |
| 20260505121501 | 12 | 219 | 0.0 | 1.6 | 0.00 | 0.00 | 0.00 | 52 | 1007.0 |
| 20260505121301 | 12 | 219 | 0.0 | 3.2 | 0.00 | 0.00 | 0.00 | 52 | 1007.0 |
| 20260505121200 | 12 | 219 | 0.0 | 3.2 | 0.00 | 0.00 | 0.00 | 51 | 1007.0 |
| 20260505121000 | 12 | 219 | 0.0 | 3.2 | 0.00 | 0.00 | 0.00 | 52 | 1006.9 |
| 20260505120900 | 12 | 219 | 1.6 | 3.2 | 0.00 | 0.00 | 0.00 | 52 | 1006.9 |
| 20260505120800 | 12 | 219 | 0.0 | 3.2 | 0.00 | 0.00 | 0.00 | 52 | 1006.9 |
| 20260505120701 | 12 | 219 | 0.0 | 3.2 | 0.00 | 0.00 | 0.00 | 52 | 1006.9 |
| 20260505120600 | 12 | 219 | 0.0 | 3.2 | 0.00 | 0.00 | 0.00 | 52 | 1006.9 |
| 20260505120500 | 12 | 219 | 0.0 | 3.2 | 0.00 | 0.00 | 0.00 | 52 | 1006.9 |
| 20260505120400 | 12 | 219 | 1.6 | 3.2 | 0.00 | 0.00 | 0.00 | 51 | 1006.9 |
| 20260505120300 | 12 | 219 | 0.0 | 3.2 | 0.00 | 0.00 | 0.00 | 52 | 1006.9 |
| 20260505120200 | 12 | 219 | 0.0 | 3.2 | 0.00 | 0.00 | 0.00 | 52 | 1006.9 |
| 20260505120100 | 12 | 217 | 1.6 | 3.2 | 0.00 | 0.00 | 0.00 | 52 | 1006.9 |
| 20260505115900 | 12 | 217 | 0.0 | 3.2 | 0.00 | 0.00 | 0.00 | 52 | 1006.9 |
| 20260505115801 | 12 | 217 | 0.0 | 3.2 | 0.00 | 0.00 | 0.00 | 52 | 1006.9 |
| 20260505115700 | 12 | 217 | 0.0 | 3.2 | 0.00 | 0.00 | 0.00 | 51 | 1006.8 |
| 20260505115601 | 12 | 217 | 1.6 | 1.6 | 0.00 | 0.00 | 0.00 | 51 | 1006.9 |
| 20260505115501 | 12 | 217 | 0.0 | 1.6 | 0.00 | 0.00 | 0.00 | 51 | 1006.8 |
| 20260505115400 | 12 | 217 | 0.0 | 1.6 | 0.00 | 0.00 | 0.00 | 51 | 1006.8 |
| 20260505115301 | 12 | 217 | 0.0 | 1.6 | 0.00 | 0.00 | 0.00 | 51 | 1006.8 |
| 20260505115200 | 12 | 217 | 0.0 | 1.6 | 0.00 | 0.00 | 0.00 | 51 | 1006.8 |
| 20260505115100 | 12 | 217 | 0.0 | 1.6 | 0.00 | 0.00 | 0.00 | 51 | 1006.8 |
| 20260505115000 | 12 | 217 | 0.0 | 1.6 | 0.00 | 0.00 | 0.00 | 51 | 1006.8 |
| 20260505114800 | 12 | 217 | 1.6 | 1.6 | 0.00 | 0.00 | 0.00 | 51 | 1006.8 |
| 20260505114700 | 12 | 217 | 1.6 | 1.6 | 0.00 | 0.00 | 0.00 | 51 | 1006.8 |
| 20260505114600 | 12 | 217 | 0.0 | 0.0 | 0.00 | 0.00 | 0.00 | 51 | 1006.8 |
| 20260505114500 | 12 | 217 | 0.0 | 0.0 | 0.00 | 0.00 | 0.00 | 51 | 1006.7 |
| 20260505114400 | 12 | 217 | 0.0 | 0.0 | 0.00 | 0.00 | 0.00 | 51 | 1006.7 |
| 20260505114300 | 12 | 217 | 0.0 | 0.0 | 0.00 | 0.00 | 0.00 | 51 | 1006.8 |
| 20260505114001 | 12 | 217 | 0.0 | 0.0 | 0.00 | 0.00 | 0.00 | 51 | 1006.8 |
| 20260505113900 | 12 | 217 | 0.0 | 0.0 | 0.00 | 0.00 | 0.00 | 51 | 1006.8 |
| 20260505113801 | 12 | 217 | 0.0 | 0.0 | 0.00 | 0.00 | 0.00 | 51 | 1006.7 |
| 20260505113700 | 12 | 217 | 0.0 | 1.6 | 0.00 | 0.00 | 0.00 | 51 | 1006.8 |
| 20260505113600 | 12 | 217 | 0.0 | 1.6 | 0.00 | 0.00 | 0.00 | 51 | 1006.8 |
| 20260505113501 | 12 | 217 | 0.0 | 1.6 | 0.00 | 0.00 | 0.00 | 51 | 1006.7 |
| 20260505113400 | 12 | 217 | 0.0 | 3.2 | 0.00 | 0.00 | 0.00 | 51 | 1006.8 |
| 20260505113300 | 12 | 217 | 0.0 | 3.2 | 0.00 | 0.00 | 0.00 | 50 | 1006.8 |
| 20260505113201 | 12 | 217 | 0.0 | 3.2 | 0.00 | 0.00 | 0.00 | 50 | 1006.7 |
| 20260505113101 | 12 | 217 | 0.0 | 3.2 | 0.00 | 0.00 | 0.00 | 50 | 1006.8 |
| 20260505113000 | 12 | 217 | 0.0 | 3.2 | 0.00 | 0.00 | 0.00 | 51 | 1006.8 |
| 20260505112901 | 12 | 217 | 0.0 | 3.2 | 0.00 | 0.00 | 0.00 | 50 | 1006.8 |
| 20260505112801 | 12 | 217 | 1.6 | 3.2 | 0.00 | 0.00 | 0.00 | 51 | 1006.7 |
| 20260505112701 | 12 | 217 | 0.0 | 3.2 | 0.00 | 0.00 | 0.00 | 51 | 1006.7 |
| 20260505112600 | 12 | 217 | 0.0 | 3.2 | 0.00 | 0.00 | 0.00 | 51 | 1006.8 |
| 20260505112401 | 12 | 250 | 3.2 | 3.2 | 0.00 | 0.00 | 0.00 | 51 | 1006.7 |
| 20260505112300 | 12 | 316 | 1.6 | 3.2 | 0.00 | 0.00 | 0.00 | 51 | 1006.7 |
| 20260505112200 | 12 | 355 | 1.6 | 1.6 | 0.00 | 0.00 | 0.00 | 49 | 1006.7 |
| 20260505112101 | 12 | 355 | 0.0 | 1.6 | 0.00 | 0.00 | 0.00 | 50 | 1006.7 |
| 20260505112001 | 12 | 355 | 0.0 | 1.6 | 0.00 | 0.00 | 0.00 | 50 | 1006.7 |
| 20260505111700 | 12 | 355 | 0.0 | 3.2 | 0.00 | 0.00 | 0.00 | 50 | 1006.7 |
| 20260505111601 | 12 | 355 | 1.6 | 3.2 | 0.00 | 0.00 | 0.00 | 50 | 1006.7 |
| 20260505111359 | 12 | 355 | 0.0 | 3.2 | 0.00 | 0.00 | 0.00 | 50 | 1006.8 |
| 20260505111100 | 12 | 355 | 1.6 | 3.2 | 0.00 | 0.00 | 0.00 | 50 | 1006.8 |
| 20260505111001 | 12 | 355 | 1.6 | 3.2 | 0.00 | 0.00 | 0.00 | 50 | 1006.8 |
| 20260505110900 | 12 | 355 | 0.0 | 1.6 | 0.00 | 0.00 | 0.00 | 49 | 1006.8 |
| 20260505110800 | 12 | 355 | 0.0 | 1.6 | 0.00 | 0.00 | 0.00 | 50 | 1006.8 |
| 20260505110700 | 12 | 355 | 0.0 | 1.6 | 0.00 | 0.00 | 0.00 | 50 | 1006.8 |
| 20260505110601 | 12 | 355 | 0.0 | 3.2 | 0.00 | 0.00 | 0.00 | 50 | 1006.8 |
| 20260505110502 | 12 | 355 | 0.0 | 3.2 | 0.00 | 0.00 | 0.00 | 49 | 1006.8 |
| 20260505110301 | 12 | 355 | 0.0 | 3.2 | 0.00 | 0.00 | 0.00 | 48 | 1006.8 |
| 20260505110200 | 12 | 355 | 0.0 | 3.2 | 0.00 | 0.00 | 0.00 | 48 | 1006.8 |
| 20260505102159 | 13 | 13 | 3.2 | 8.0 | 0.00 | 0.00 | 0.00 | 47 | 1006.8 |
| 20260505102100 | 12 | 15 | 1.6 | 8.0 | 0.00 | 0.00 | 0.00 | 46 | 1006.8 |
| 20260505102001 | 12 | 15 | 1.6 | 8.0 | 0.00 | 0.00 | 0.00 | 46 | 1006.8 |
| 20260505101901 | 12 | 15 | 1.6 | 8.0 | 0.00 | 0.00 | 0.00 | 45 | 1006.8 |
| 20260505101800 | 12 | 15 | 3.2 | 8.0 | 0.00 | 0.00 | 0.00 | 45 | 1006.8 |
| 20260505101700 | 12 | 19 | 3.2 | 8.0 | 0.00 | 0.00 | 0.00 | 46 | 1006.8 |
| 20260505101600 | 12 | 290 | 1.6 | 8.0 | 0.00 | 0.00 | 0.00 | 47 | 1006.8 |
| 20260505101500 | 12 | 243 | 6.4 | 6.4 | 0.00 | 0.00 | 0.00 | 46 | 1006.8 |
| 20260505101400 | 12 | 346 | 1.6 | 6.4 | 0.00 | 0.00 | 0.00 | 46 | 1006.8 |
| 20260505101301 | 12 | 346 | 0.0 | 6.4 | 0.00 | 0.00 | 0.00 | 46 | 1006.9 |
| 20260505101201 | 13 | 346 | 1.6 | 6.4 | 0.00 | 0.00 | 0.00 | 46 | 1006.9 |
| 20260505101101 | 13 | 346 | 3.2 | 6.4 | 0.00 | 0.00 | 0.00 | 46 | 1006.9 |
| 20260505101001 | 13 | 346 | 3.2 | 6.4 | 0.00 | 0.00 | 0.00 | 46 | 1006.9 |
| 20260505100901 | 13 | 296 | 1.6 | 6.4 | 0.00 | 0.00 | 0.00 | 46 | 1006.8 |
| 20260505100659 | 13 | 351 | 0.0 | 6.4 | 0.00 | 0.00 | 0.00 | 45 | 1006.9 |
| 20260505100600 | 13 | 263 | 1.6 | 6.4 | 0.00 | 0.00 | 0.00 | 45 | 1006.9 |
| 20260505100501 | 13 | 263 | 0.0 | 6.4 | 0.00 | 0.00 | 0.00 | 46 | 1006.8 |
| 20260505100300 | 13 | 344 | 3.2 | 6.4 | 0.00 | 0.00 | 0.00 | 45 | 1006.9 |
| 20260505100200 | 13 | 257 | 1.6 | 6.4 | 0.00 | 0.00 | 0.00 | 45 | 1006.9 |
| 20260505100100 | 13 | 262 | 1.6 | 6.4 | 0.00 | 0.00 | 0.00 | 45 | 1006.9 |
| 20260505095859 | 13 | 321 | 0.0 | 6.4 | 0.00 | 0.00 | 0.00 | 44 | 1006.9 |
| 20260505095800 | 13 | 247 | 3.2 | 11.3 | 0.00 | 0.00 | 0.00 | 44 | 1006.9 |
| 20260505095701 | 13 | 322 | 1.6 | 11.3 | 0.00 | 0.00 | 0.00 | 44 | 1006.9 |
| 20260505095601 | 13 | 327 | 1.6 | 11.3 | 0.00 | 0.00 | 0.00 | 44 | 1006.9 |
| 20260505095501 | 13 | 296 | 1.6 | 11.3 | 0.00 | 0.00 | 0.00 | 44 | 1006.9 |
| 20260505095400 | 13 | 256 | 4.8 | 11.3 | 0.00 | 0.00 | 0.00 | 44 | 1006.9 |
| 20260505095259 | 13 | 261 | 3.2 | 11.3 | 0.00 | 0.00 | 0.00 | 44 | 1006.9 |
| 20260505095200 | 13 | 332 | 0.0 | 11.3 | 0.00 | 0.00 | 0.00 | 44 | 1006.8 |
| 20260505095101 | 13 | 254 | 1.6 | 11.3 | 0.00 | 0.00 | 0.00 | 43 | 1006.9 |
| 20260505095001 | 13 | 261 | 0.0 | 11.3 | 0.00 | 0.00 | 0.00 | 44 | 1006.8 |
| 20260505094900 | 13 | 224 | 8.0 | 11.3 | 0.00 | 0.00 | 0.00 | 43 | 1006.8 |
| 20260505094800 | 13 | 214 | 3.2 | 11.3 | 0.00 | 0.00 | 0.00 | 43 | 1006.9 |
| 20260505094401 | 13 | 213 | 1.6 | 8.0 | 0.00 | 0.00 | 0.00 | 43 | 1006.9 |
| 20260505094300 | 13 | 210 | 1.6 | 8.0 | 0.00 | 0.00 | 0.00 | 43 | 1006.9 |
| 20260505094200 | 13 | 229 | 1.6 | 8.0 | 0.00 | 0.00 | 0.00 | 44 | 1006.9 |
| 20260505094100 | 13 | 228 | 3.2 | 8.0 | 0.00 | 0.00 | 0.00 | 43 | 1006.9 |
| 20260505094000 | 13 | 228 | 0.0 | 8.0 | 0.00 | 0.00 | 0.00 | 43 | 1006.9 |
| 20260505093859 | 13 | 225 | 1.6 | 8.0 | 0.00 | 0.00 | 0.00 | 43 | 1006.9 |
| 20260505093800 | 13 | 187 | 4.8 | 8.0 | 0.00 | 0.00 | 0.00 | 43 | 1006.9 |
| 20260505093700 | 13 | 196 | 6.4 | 8.0 | 0.00 | 0.00 | 0.00 | 43 | 1006.9 |
| 20260505093600 | 13 | 208 | 6.4 | 9.7 | 0.00 | 0.00 | 0.00 | 43 | 1006.9 |
| 20260505093501 | 14 | 181 | 0.0 | 11.3 | 0.00 | 0.00 | 0.00 | 43 | 1007.0 |
| 20260505093400 | 14 | 181 | 0.0 | 11.3 | 0.00 | 0.00 | 0.00 | 43 | 1006.9 |
| 20260505093302 | 14 | 239 | 0.0 | 11.3 | 0.00 | 0.00 | 0.00 | 43 | 1006.9 |
| 20260505093200 | 14 | 244 | 4.8 | 12.9 | 0.00 | 0.00 | 0.00 | 43 | 1007.0 |
| 20260505093000 | 14 | 130 | 1.6 | 12.9 | 0.00 | 0.00 | 0.00 | 43 | 1006.9 |
| 20260505092901 | 14 | 171 | 3.2 | 12.9 | 0.00 | 0.00 | 0.00 | 42 | 1006.9 |
| 20260505092800 | 14 | 198 | 4.8 | 12.9 | 0.00 | 0.00 | 0.00 | 42 | 1007.0 |
| 20260505092700 | 14 | 192 | 0.0 | 12.9 | 0.00 | 0.00 | 0.00 | 42 | 1007.0 |
| 20260505092600 | 14 | 241 | 4.8 | 12.9 | 0.00 | 0.00 | 0.00 | 42 | 1006.9 |
| 20260505092501 | 14 | 212 | 4.8 | 12.9 | 0.00 | 0.00 | 0.00 | 42 | 1006.9 |
| 20260505092301 | 14 | 190 | 3.2 | 12.9 | 0.00 | 0.00 | 0.00 | 42 | 1006.9 |
| 20260505092201 | 14 | 207 | 6.4 | 12.9 | 0.00 | 0.00 | 0.00 | 42 | 1006.9 |
| 20260505092100 | 14 | 231 | 12.9 | 12.9 | 0.00 | 0.00 | 0.00 | 42 | 1006.9 |
| 20260505092001 | 14 | 209 | 9.7 | 12.9 | 0.00 | 0.00 | 0.00 | 43 | 1006.9 |
| 20260505091859 | 14 | 189 | 4.8 | 12.9 | 0.00 | 0.00 | 0.00 | 43 | 1006.9 |
| 20260505091801 | 14 | 209 | 1.6 | 12.9 | 0.00 | 0.00 | 0.00 | 42 | 1006.9 |
| 20260505091700 | 14 | 224 | 4.8 | 12.9 | 0.00 | 0.00 | 0.00 | 42 | 1007.0 |
| 20260505091559 | 14 | 167 | 9.7 | 12.9 | 0.00 | 0.00 | 0.00 | 42 | 1006.9 |
| 20260505091402 | 14 | 217 | 0.0 | 12.9 | 0.00 | 0.00 | 0.00 | 43 | 1007.0 |
| 20260505091300 | 14 | 235 | 1.6 | 12.9 | 0.00 | 0.00 | 0.00 | 43 | 1007.0 |
| 20260505091201 | 14 | 213 | 1.6 | 12.9 | 0.00 | 0.00 | 0.00 | 42 | 1006.9 |
| 20260505091059 | 14 | 160 | 6.4 | 12.9 | 0.00 | 0.00 | 0.00 | 42 | 1007.0 |
| 20260505091001 | 14 | 229 | 6.4 | 12.9 | 0.00 | 0.00 | 0.00 | 42 | 1007.0 |
| 20260505090900 | 14 | 202 | 3.2 | 12.9 | 0.00 | 0.00 | 0.00 | 42 | 1007.0 |
| 20260505090800 | 14 | 245 | 4.8 | 12.9 | 0.00 | 0.00 | 0.00 | 42 | 1007.0 |
| 20260505090700 | 14 | 250 | 3.2 | 12.9 | 0.00 | 0.00 | 0.00 | 42 | 1007.0 |
| 20260505090600 | 14 | 195 | 9.7 | 12.9 | 0.00 | 0.00 | 0.00 | 43 | 1007.0 |
| 20260505090502 | 14 | 212 | 3.2 | 12.9 | 0.00 | 0.00 | 0.00 | 42 | 1007.0 |
| 20260505090359 | 14 | 225 | 11.3 | 12.9 | 0.00 | 0.00 | 0.00 | 43 | 1007.0 |
| 20260505090301 | 14 | 153 | 1.6 | 12.9 | 0.00 | 0.00 | 0.00 | 42 | 1007.0 |
| 20260505090003 | 14 | 215 | 1.6 | 12.9 | 0.00 | 0.00 | 0.00 | 42 | 1007.0 |
| 20260505085859 | 14 | 201 | 6.4 | 12.9 | 0.00 | 0.00 | 0.00 | 42 | 1007.0 |
| 20260505085800 | 14 | 156 | 6.4 | 12.9 | 0.00 | 0.00 | 0.00 | 42 | 1007.0 |
| 20260505085700 | 14 | 288 | 3.2 | 12.9 | 0.00 | 0.00 | 0.00 | 42 | 1006.9 |
| 20260505085600 | 14 | 264 | 4.8 | 12.9 | 0.00 | 0.00 | 0.00 | 42 | 1006.9 |
| 20260505085500 | 14 | 173 | 6.4 | 12.9 | 0.00 | 0.00 | 0.00 | 42 | 1006.9 |
| 20260505085400 | 14 | 250 | 9.7 | 12.9 | 0.00 | 0.00 | 0.00 | 43 | 1006.9 |
| 20260505085301 | 14 | 205 | 9.7 | 12.9 | 0.00 | 0.00 | 0.00 | 43 | 1006.9 |
| 20260505085200 | 14 | 188 | 3.2 | 11.3 | 0.00 | 0.00 | 0.00 | 42 | 1006.9 |
| 20260505085100 | 14 | 295 | 1.6 | 11.3 | 0.00 | 0.00 | 0.00 | 42 | 1006.9 |
| 20260505084900 | 14 | 210 | 0.0 | 11.3 | 0.00 | 0.00 | 0.00 | 42 | 1006.9 |
| 20260505084600 | 14 | 248 | 1.6 | 12.9 | 0.00 | 0.00 | 0.00 | 42 | 1006.9 |
| 20260505084501 | 14 | 213 | 0.0 | 14.5 | 0.00 | 0.00 | 0.00 | 42 | 1006.9 |
| 20260505084400 | 14 | 212 | 0.0 | 14.5 | 0.00 | 0.00 | 0.00 | 42 | 1006.8 |
| 20260505084300 | 14 | 168 | 1.6 | 14.5 | 0.00 | 0.00 | 0.00 | 42 | 1006.9 |
| 20260505084201 | 14 | 292 | 4.8 | 14.5 | 0.00 | 0.00 | 0.00 | 41 | 1006.9 |
| 20260505084059 | 14 | 234 | 3.2 | 14.5 | 0.00 | 0.00 | 0.00 | 41 | 1006.9 |
| 20260505084002 | 14 | 247 | 4.8 | 14.5 | 0.00 | 0.00 | 0.00 | 41 | 1006.9 |
| 20260505083900 | 14 | 240 | 8.0 | 14.5 | 0.00 | 0.00 | 0.00 | 40 | 1007.0 |
| 20260505083801 | 14 | 193 | 4.8 | 14.5 | 0.00 | 0.00 | 0.00 | 42 | 1006.9 |
| 20260505083600 | 14 | 183 | 3.2 | 9.7 | 0.00 | 0.00 | 0.00 | 43 | 1006.9 |
| 20260505083502 | 14 | 224 | 6.4 | 9.7 | 0.00 | 0.00 | 0.00 | 42 | 1007.0 |
| 20260505083400 | 14 | 274 | 0.0 | 12.9 | 0.00 | 0.00 | 0.00 | 42 | 1006.9 |
| 20260505083259 | 14 | 221 | 0.0 | 12.9 | 0.00 | 0.00 | 0.00 | 42 | 1006.9 |
| 20260505083201 | 14 | 221 | 1.6 | 12.9 | 0.00 | 0.00 | 0.00 | 41 | 1007.0 |
| 20260505083000 | 14 | 171 | 3.2 | 12.9 | 0.00 | 0.00 | 0.00 | 41 | 1006.9 |
| 20260505082900 | 14 | 232 | 3.2 | 12.9 | 0.00 | 0.00 | 0.00 | 41 | 1006.9 |
| 20260505082600 | 14 | 163 | 11.3 | 11.3 | 0.00 | 0.00 | 0.00 | 41 | 1007.0 |
| 20260505082500 | 14 | 217 | 4.8 | 11.3 | 0.00 | 0.00 | 0.00 | 40 | 1007.0 |
| 20260505082400 | 14 | 205 | 6.4 | 11.3 | 0.00 | 0.00 | 0.00 | 40 | 1006.9 |
| 20260505082300 | 14 | 184 | 3.2 | 11.3 | 0.00 | 0.00 | 0.00 | 40 | 1007.0 |
| 20260505082200 | 14 | 231 | 4.8 | 11.3 | 0.00 | 0.00 | 0.00 | 40 | 1007.0 |
| 20260505081900 | 14 | 197 | 1.6 | 11.3 | 0.00 | 0.00 | 0.00 | 40 | 1007.0 |
| 20260505081759 | 14 | 184 | 4.8 | 11.3 | 0.00 | 0.00 | 0.00 | 40 | 1007.0 |
| 20260505081659 | 14 | 186 | 3.2 | 14.5 | 0.00 | 0.00 | 0.00 | 40 | 1007.0 |
| 20260505081600 | 14 | 157 | 6.4 | 14.5 | 0.00 | 0.00 | 0.00 | 40 | 1007.1 |
| 20260505081500 | 14 | 137 | 3.2 | 14.5 | 0.00 | 0.00 | 0.00 | 40 | 1007.0 |
| 20260505081402 | 14 | 102 | 4.8 | 14.5 | 0.00 | 0.00 | 0.00 | 40 | 1007.1 |
| 20260505081300 | 14 | 182 | 3.2 | 14.5 | 0.00 | 0.00 | 0.00 | 40 | 1007.1 |
| 20260505081200 | 14 | 192 | 3.2 | 14.5 | 0.00 | 0.00 | 0.00 | 40 | 1007.1 |
| 20260505081100 | 14 | 159 | 4.8 | 14.5 | 0.00 | 0.00 | 0.00 | 40 | 1007.1 |
| 20260505081001 | 14 | 256 | 6.4 | 14.5 | 0.00 | 0.00 | 0.00 | 40 | 1007.2 |
| 20260505080900 | 14 | 219 | 9.7 | 14.5 | 0.00 | 0.00 | 0.00 | 40 | 1007.2 |
| 20260505080801 | 14 | 208 | 8.0 | 14.5 | 0.00 | 0.00 | 0.00 | 40 | 1007.2 |
| 20260505080700 | 14 | 188 | 14.5 | 16.1 | 0.00 | 0.00 | 0.00 | 40 | 1007.2 |
| 20260505080601 | 14 | 157 | 9.7 | 16.1 | 0.00 | 0.00 | 0.00 | 40 | 1007.3 |
| 20260505080500 | 14 | 153 | 8.0 | 14.5 | 0.00 | 0.00 | 0.00 | 41 | 1007.2 |
| 20260505080400 | 14 | 40 | 1.6 | 14.5 | 0.00 | 0.00 | 0.00 | 41 | 1007.3 |
| 20260505080259 | 14 | 156 | 4.8 | 14.5 | 0.00 | 0.00 | 0.00 | 41 | 1007.3 |
| 20260505080200 | 14 | 165 | 6.4 | 14.5 | 0.00 | 0.00 | 0.00 | 41 | 1007.3 |
| 20260505080059 | 14 | 128 | 4.8 | 11.3 | 0.00 | 0.00 | 0.00 | 41 | 1007.2 |
| 20260505080003 | 14 | 148 | 4.8 | 11.3 | 0.00 | 0.00 | 0.00 | 41 | 1007.2 |
| 20260505075859 | 14 | 190 | 6.4 | 12.9 | 0.00 | 0.00 | 0.00 | 41 | 1007.3 |
| 20260505075800 | 14 | 88 | 4.8 | 16.1 | 0.00 | 0.00 | 0.00 | 41 | 1007.3 |
| 20260505075700 | 14 | 184 | 4.8 | 16.1 | 0.00 | 0.00 | 0.00 | 42 | 1007.3 |
| 20260505075600 | 14 | 188 | 3.2 | 16.1 | 0.00 | 0.00 | 0.00 | 41 | 1007.4 |
| 20260505075500 | 14 | 123 | 3.2 | 16.1 | 0.00 | 0.00 | 0.00 | 41 | 1007.3 |
| 20260505075359 | 14 | 226 | 0.0 | 16.1 | 0.00 | 0.00 | 0.00 | 41 | 1007.4 |
| 20260505075300 | 14 | 229 | 3.2 | 16.1 | 0.00 | 0.00 | 0.00 | 41 | 1007.4 |
| 20260505075159 | 14 | 175 | 4.8 | 16.1 | 0.00 | 0.00 | 0.00 | 41 | 1007.4 |
| 20260505075059 | 14 | 170 | 0.0 | 16.1 | 0.00 | 0.00 | 0.00 | 41 | 1007.4 |
| 20260505075001 | 14 | 146 | 3.2 | 16.1 | 0.00 | 0.00 | 0.00 | 41 | 1007.5 |
| 20260505074900 | 14 | 196 | 3.2 | 17.7 | 0.00 | 0.00 | 0.00 | 41 | 1007.4 |
| 20260505074759 | 14 | 159 | 6.4 | 17.7 | 0.00 | 0.00 | 0.00 | 41 | 1007.4 |
| 20260505074701 | 14 | 155 | 12.9 | 19.3 | 0.00 | 0.00 | 0.00 | 42 | 1007.4 |
| 20260505074600 | 14 | 168 | 8.0 | 19.3 | 0.00 | 0.00 | 0.00 | 42 | 1007.4 |
| 20260505074500 | 14 | 146 | 1.6 | 17.7 | 0.00 | 0.00 | 0.00 | 43 | 1007.4 |
| 20260505074359 | 14 | 222 | 6.4 | 17.7 | 0.00 | 0.00 | 0.00 | 43 | 1007.4 |
| 20260505074259 | 14 | 229 | 6.4 | 17.7 | 0.00 | 0.00 | 0.00 | 43 | 1007.4 |
| 20260505074159 | 14 | 134 | 3.2 | 17.7 | 0.00 | 0.00 | 0.00 | 43 | 1007.5 |
| 20260505074101 | 14 | 166 | 14.5 | 17.7 | 0.00 | 0.00 | 0.00 | 43 | 1007.4 |
| 20260505074000 | 14 | 317 | 4.8 | 16.1 | 0.00 | 0.00 | 0.00 | 45 | 1007.5 |
| 20260505073800 | 14 | 102 | 4.8 | 14.5 | 0.00 | 0.00 | 0.00 | 45 | 1007.5 |
| 20260505073700 | 14 | 174 | 3.2 | 14.5 | 0.00 | 0.00 | 0.00 | 45 | 1007.6 |
| 20260505073559 | 14 | 196 | 6.4 | 14.5 | 0.00 | 0.00 | 0.00 | 45 | 1007.5 |
| 20260505073459 | 14 | 150 | 12.9 | 12.9 | 0.00 | 0.00 | 0.00 | 46 | 1007.6 |
| 20260505073402 | 13 | 204 | 3.2 | 12.9 | 0.00 | 0.00 | 0.00 | 46 | 1007.6 |
| 20260505073259 | 13 | 211 | 8.0 | 12.9 | 0.00 | 0.00 | 0.00 | 46 | 1007.6 |
| 20260505073200 | 13 | 192 | 4.8 | 14.5 | 0.00 | 0.00 | 0.00 | 46 | 1007.6 |
| 20260505073100 | 13 | 176 | 4.8 | 14.5 | 0.00 | 0.00 | 0.00 | 46 | 1007.6 |
| 20260505073000 | 13 | 139 | 1.6 | 14.5 | 0.00 | 0.00 | 0.00 | 46 | 1007.7 |
| 20260505072901 | 13 | 120 | 4.8 | 14.5 | 0.00 | 0.00 | 0.00 | 47 | 1007.6 |
| 20260505072800 | 13 | 163 | 1.6 | 14.5 | 0.00 | 0.00 | 0.00 | 47 | 1007.6 |
| 20260505072659 | 13 | 163 | 1.6 | 14.5 | 0.00 | 0.00 | 0.00 | 47 | 1007.6 |
| 20260505072501 | 13 | 256 | 11.3 | 14.5 | 0.00 | 0.00 | 0.00 | 47 | 1007.6 |
| 20260505072300 | 13 | 188 | 8.0 | 9.7 | 0.00 | 0.00 | 0.00 | 47 | 1007.8 |
| 20260505072200 | 13 | 123 | 4.8 | 6.4 | 0.00 | 0.00 | 0.00 | 48 | 1007.7 |
| 20260505072059 | 13 | 180 | 3.2 | 6.4 | 0.00 | 0.00 | 0.00 | 48 | 1007.7 |
| 20260505071959 | 13 | 222 | 1.6 | 6.4 | 0.00 | 0.00 | 0.00 | 48 | 1007.7 |
| 20260505071800 | 13 | 130 | 1.6 | 8.0 | 0.00 | 0.00 | 0.00 | 47 | 1007.7 |
| 20260505071600 | 13 | 220 | 6.4 | 11.3 | 0.00 | 0.00 | 0.00 | 48 | 1007.7 |
| 20260505071300 | 14 | 142 | 3.2 | 11.3 | 0.00 | 0.00 | 0.00 | 47 | 1007.7 |
| 20260505071200 | 14 | 205 | 4.8 | 11.3 | 0.00 | 0.00 | 0.00 | 48 | 1007.7 |
| 20260505071059 | 14 | 146 | 4.8 | 14.5 | 0.00 | 0.00 | 0.00 | 47 | 1007.7 |
| 20260505070959 | 14 | 179 | 3.2 | 14.5 | 0.00 | 0.00 | 0.00 | 47 | 1007.7 |
| 20260505070900 | 14 | 86 | 1.6 | 14.5 | 0.00 | 0.00 | 0.00 | 47 | 1007.7 |
| 20260505070800 | 14 | 186 | 11.3 | 14.5 | 0.00 | 0.00 | 0.00 | 47 | 1007.7 |
| 20260505070659 | 14 | 238 | 4.8 | 14.5 | 0.00 | 0.00 | 0.00 | 47 | 1007.7 |
| 20260505070559 | 14 | 106 | 0.0 | 14.5 | 0.00 | 0.00 | 0.00 | 47 | 1007.7 |
| 20260505070501 | 14 | 172 | 1.6 | 14.5 | 0.00 | 0.00 | 0.00 | 47 | 1007.7 |
| 20260505070400 | 14 | 138 | 3.2 | 14.5 | 0.00 | 0.00 | 0.00 | 47 | 1007.7 |
| 20260505070259 | 14 | 208 | 9.7 | 14.5 | 0.00 | 0.00 | 0.00 | 47 | 1007.7 |
| 20260505070200 | 14 | 163 | 11.3 | 12.9 | 0.00 | 0.00 | 0.00 | 47 | 1007.7 |
| 20260505070059 | 14 | 169 | 11.3 | 14.5 | 0.00 | 0.00 | 0.00 | 47 | 1007.7 |
| 20260505070002 | 14 | 217 | 9.7 | 14.5 | 0.00 | 0.00 | 0.00 | 47 | 1007.7 |
| 20260505065859 | 14 | 186 | 4.8 | 14.5 | 0.00 | 0.00 | 0.00 | 47 | 1007.7 |
| 20260505065800 | 14 | 90 | 4.8 | 14.5 | 0.00 | 0.00 | 0.00 | 47 | 1007.7 |
| 20260505065659 | 14 | 120 | 1.6 | 14.5 | 0.00 | 0.00 | 0.00 | 47 | 1007.8 |
| 20260505065559 | 14 | 192 | 11.3 | 14.5 | 0.00 | 0.00 | 0.00 | 48 | 1007.8 |
| 20260505065459 | 14 | 121 | 4.8 | 11.3 | 0.00 | 0.00 | 0.00 | 48 | 1007.8 |
| 20260505065359 | 14 | 229 | 4.8 | 11.3 | 0.00 | 0.00 | 0.00 | 48 | 1007.8 |
| 20260505065300 | 14 | 144 | 4.8 | 11.3 | 0.00 | 0.00 | 0.00 | 48 | 1007.8 |
| 20260505065159 | 14 | 161 | 0.0 | 16.1 | 0.00 | 0.00 | 0.00 | 48 | 1007.9 |
| 20260505064959 | 14 | 147 | 1.6 | 16.1 | 0.00 | 0.00 | 0.00 | 48 | 1007.9 |
| 20260505064900 | 14 | 165 | 4.8 | 16.1 | 0.00 | 0.00 | 0.00 | 47 | 1007.9 |
| 20260505064800 | 14 | 142 | 9.7 | 16.1 | 0.00 | 0.00 | 0.00 | 47 | 1007.9 |
| 20260505064659 | 14 | 175 | 1.6 | 16.1 | 0.00 | 0.00 | 0.00 | 48 | 1007.9 |
| 20260505064559 | 14 | 210 | 6.4 | 16.1 | 0.00 | 0.00 | 0.00 | 47 | 1007.9 |
| 20260505064159 | 14 | 138 | 1.6 | 11.3 | 0.00 | 0.00 | 0.00 | 47 | 1007.9 |
| 20260505064059 | 15 | 148 | 8.0 | 11.3 | 0.00 | 0.00 | 0.00 | 47 | 1007.8 |
| 20260505063959 | 15 | 178 | 1.6 | 12.9 | 0.00 | 0.00 | 0.00 | 46 | 1007.9 |
| 20260505063859 | 15 | 178 | 1.6 | 12.9 | 0.00 | 0.00 | 0.00 | 47 | 1007.9 |
| 20260505063759 | 15 | 98 | 4.8 | 12.9 | 0.00 | 0.00 | 0.00 | 46 | 1007.9 |
| 20260505063559 | 15 | 146 | 4.8 | 12.9 | 0.00 | 0.00 | 0.00 | 46 | 1007.9 |
| 20260505063500 | 15 | 190 | 3.2 | 12.9 | 0.00 | 0.00 | 0.00 | 46 | 1007.9 |
| 20260505063359 | 15 | 220 | 6.4 | 12.9 | 0.00 | 0.00 | 0.00 | 45 | 1007.8 |
| 20260505063302 | 15 | 194 | 6.4 | 12.9 | 0.00 | 0.00 | 0.00 | 45 | 1007.9 |
| 20260505063200 | 15 | 205 | 3.2 | 12.9 | 0.00 | 0.00 | 0.00 | 45 | 1007.9 |
| 20260505063101 | 15 | 190 | 4.8 | 12.9 | 0.00 | 0.00 | 0.00 | 44 | 1007.9 |
| 20260505063000 | 15 | 155 | 1.6 | 9.7 | 0.00 | 0.00 | 0.00 | 44 | 1007.8 |
| 20260505062859 | 15 | 142 | 8.0 | 9.7 | 0.00 | 0.00 | 0.00 | 44 | 1007.8 |
| 20260505062759 | 15 | 173 | 1.6 | 12.9 | 0.00 | 0.00 | 0.00 | 43 | 1007.8 |
| 20260505062559 | 15 | 190 | 3.2 | 12.9 | 0.00 | 0.00 | 0.00 | 43 | 1007.7 |
| 20260505062500 | 15 | 242 | 4.8 | 12.9 | 0.00 | 0.00 | 0.00 | 43 | 1007.7 |
| 20260505062359 | 15 | 220 | 3.2 | 12.9 | 0.00 | 0.00 | 0.00 | 43 | 1007.7 |
| 20260505062259 | 15 | 161 | 1.6 | 12.9 | 0.00 | 0.00 | 0.00 | 43 | 1007.7 |
| 20260505062200 | 15 | 216 | 3.2 | 12.9 | 0.00 | 0.00 | 0.00 | 42 | 1007.7 |
| 20260505062059 | 15 | 224 | 1.6 | 12.9 | 0.00 | 0.00 | 0.00 | 42 | 1007.7 |
| 20260505062000 | 15 | 171 | 3.2 | 12.9 | 0.00 | 0.00 | 0.00 | 42 | 1007.6 |
| 20260505061859 | 15 | 87 | 11.3 | 12.9 | 0.00 | 0.00 | 0.00 | 42 | 1007.7 |
| 20260505061800 | 15 | 150 | 6.4 | 12.9 | 0.00 | 0.00 | 0.00 | 41 | 1007.6 |
| 20260505061701 | 15 | 257 | 8.0 | 12.9 | 0.00 | 0.00 | 0.00 | 40 | 1007.7 |
| 20260505061600 | 15 | 214 | 1.6 | 12.9 | 0.00 | 0.00 | 0.00 | 41 | 1007.6 |
| 20260505061500 | 15 | 250 | 1.6 | 12.9 | 0.00 | 0.00 | 0.00 | 40 | 1007.6 |
| 20260505061359 | 15 | 118 | 4.8 | 12.9 | 0.00 | 0.00 | 0.00 | 39 | 1007.6 |
| 20260505061200 | 15 | 314 | 12.9 | 12.9 | 0.00 | 0.00 | 0.00 | 38 | 1007.5 |
| 20260505061059 | 15 | 203 | 0.0 | 6.4 | 0.00 | 0.00 | 0.00 | 38 | 1007.5 |
| 20260505060900 | 15 | 281 | 0.0 | 6.4 | 0.00 | 0.00 | 0.00 | 37 | 1007.4 |
| 20260505060659 | 15 | 266 | 1.6 | 6.4 | 0.00 | 0.00 | 0.00 | 38 | 1007.4 |
| 20260505060359 | 15 | 259 | 1.6 | 6.4 | 0.00 | 0.00 | 0.00 | 37 | 1007.3 |
| 20260505060259 | 15 | 286 | 1.6 | 6.4 | 0.00 | 0.00 | 0.00 | 36 | 1007.2 |
| 20260505060202 | 15 | 240 | 0.0 | 4.8 | 0.00 | 0.00 | 0.00 | 36 | 1007.2 |
| 20260505060004 | 15 | 269 | 3.2 | 4.8 | 0.00 | 0.00 | 0.00 | 37 | 1007.2 |
| 20260505055859 | 15 | 331 | 1.6 | 4.8 | 0.00 | 0.00 | 0.00 | 37 | 1007.1 |
| 20260505055759 | 15 | 317 | 1.6 | 4.8 | 0.00 | 0.00 | 0.00 | 37 | 1007.1 |
| 20260505055559 | 15 | 336 | 0.0 | 4.8 | 0.00 | 0.00 | 0.00 | 36 | 1007.1 |
| 20260505055500 | 15 | 284 | 3.2 | 4.8 | 0.00 | 0.00 | 0.00 | 36 | 1007.1 |
| 20260505055400 | 15 | 250 | 1.6 | 4.8 | 0.00 | 0.00 | 0.00 | 35 | 1007.1 |
| 20260505055259 | 15 | 232 | 0.0 | 4.8 | 0.00 | 0.00 | 0.00 | 35 | 1007.1 |
| 20260505055200 | 15 | 232 | 0.0 | 4.8 | 0.00 | 0.00 | 0.00 | 35 | 1007.1 |
| 20260505054959 | 15 | 276 | 0.0 | 4.8 | 0.00 | 0.00 | 0.00 | 35 | 1007.0 |
| 20260505054900 | 15 | 276 | 0.0 | 4.8 | 0.00 | 0.00 | 0.00 | 35 | 1007.0 |
| 20260505054759 | 15 | 268 | 0.0 | 4.8 | 0.00 | 0.00 | 0.00 | 35 | 1007.0 |
| 20260505054659 | 15 | 268 | 0.0 | 4.8 | 0.00 | 0.00 | 0.00 | 35 | 1007.0 |
| 20260505054601 | 15 | 268 | 0.0 | 4.8 | 0.00 | 0.00 | 0.00 | 35 | 1007.0 |
| 20260505054501 | 15 | 268 | 1.6 | 4.8 | 0.00 | 0.00 | 0.00 | 36 | 1007.0 |
| 20260505054400 | 15 | 233 | 3.2 | 4.8 | 0.00 | 0.00 | 0.00 | 35 | 1007.0 |
| 20260505054300 | 15 | 277 | 3.2 | 4.8 | 0.00 | 0.00 | 0.00 | 36 | 1007.0 |
| 20260505054200 | 15 | 306 | 1.6 | 8.0 | 0.00 | 0.00 | 0.00 | 35 | 1006.9 |
| 20260505054000 | 15 | 306 | 1.6 | 8.0 | 0.00 | 0.00 | 0.00 | 35 | 1006.9 |
| 20260505053800 | 15 | 306 | 0.0 | 8.0 | 0.00 | 0.00 | 0.00 | 35 | 1006.9 |
| 20260505053659 | 15 | 294 | 3.2 | 8.0 | 0.00 | 0.00 | 0.00 | 36 | 1006.9 |
| 20260505053600 | 15 | 223 | 1.6 | 8.0 | 0.00 | 0.00 | 0.00 | 35 | 1006.9 |
| 20260505053500 | 15 | 223 | 1.6 | 8.0 | 0.00 | 0.00 | 0.00 | 36 | 1006.8 |
| 20260505053400 | 15 | 229 | 1.6 | 8.0 | 0.00 | 0.00 | 0.00 | 36 | 1006.8 |
| 20260505053101 | 15 | 348 | 1.6 | 6.4 | 0.00 | 0.00 | 0.00 | 34 | 1006.9 |
| 20260505053000 | 16 | 355 | 0.0 | 6.4 | 0.00 | 0.00 | 0.00 | 35 | 1006.8 |
| 20260505052900 | 16 | 62 | 3.2 | 6.4 | 0.00 | 0.00 | 0.00 | 35 | 1006.8 |
| 20260505052800 | 16 | 255 | 3.2 | 6.4 | 0.00 | 0.00 | 0.00 | 36 | 1006.8 |
| 20260505052700 | 16 | 298 | 0.0 | 1.6 | 0.00 | 0.00 | 0.00 | 34 | 1006.8 |
| 20260505052600 | 16 | 298 | 0.0 | 1.6 | 0.00 | 0.00 | 0.00 | 35 | 1006.8 |
| 20260505052500 | 16 | 298 | 0.0 | 1.6 | 0.00 | 0.00 | 0.00 | 35 | 1006.8 |
| 20260505052359 | 16 | 298 | 1.6 | 3.2 | 0.00 | 0.00 | 0.00 | 35 | 1006.8 |
| 20260505052301 | 16 | 298 | 0.0 | 3.2 | 0.00 | 0.00 | 0.00 | 34 | 1006.8 |
| 20260505052200 | 16 | 298 | 0.0 | 4.8 | 0.00 | 0.00 | 0.00 | 34 | 1006.8 |
| 20260505052059 | 16 | 298 | 0.0 | 6.4 | 0.00 | 0.00 | 0.00 | 34 | 1006.8 |
| 20260505052000 | 16 | 298 | 0.0 | 6.4 | 0.00 | 0.00 | 0.00 | 35 | 1006.8 |
| 20260505051759 | 16 | 298 | 1.6 | 6.4 | 0.00 | 0.00 | 0.00 | 33 | 1006.8 |
| 20260505051659 | 16 | 298 | 1.6 | 6.4 | 0.00 | 0.00 | 0.00 | 33 | 1006.8 |
| 20260505051600 | 16 | 269 | 0.0 | 6.4 | 0.00 | 0.00 | 0.00 | 34 | 1006.8 |
| 20260505051502 | 16 | 279 | 1.6 | 6.4 | 0.00 | 0.00 | 0.00 | 33 | 1006.8 |
| 20260505051359 | 16 | 225 | 1.6 | 6.4 | 0.00 | 0.00 | 0.00 | 33 | 1006.8 |
| 20260505051300 | 16 | 202 | 1.6 | 6.4 | 0.00 | 0.00 | 0.00 | 34 | 1006.7 |
| 20260505051200 | 16 | 244 | 3.2 | 6.4 | 0.00 | 0.00 | 0.00 | 34 | 1006.8 |
| 20260505051059 | 16 | 256 | 0.0 | 6.4 | 0.00 | 0.00 | 0.00 | 33 | 1006.8 |
| 20260505051000 | 16 | 212 | 0.0 | 4.8 | 0.00 | 0.00 | 0.00 | 33 | 1006.8 |
| 20260505050900 | 16 | 146 | 0.0 | 4.8 | 0.00 | 0.00 | 0.00 | 33 | 1006.7 |
| 20260505050659 | 16 | 146 | 0.0 | 4.8 | 0.00 | 0.00 | 0.00 | 33 | 1006.7 |
| 20260505050600 | 16 | 142 | 1.6 | 4.8 | 0.00 | 0.00 | 0.00 | 33 | 1006.7 |
| 20260505050500 | 16 | 318 | 4.8 | 4.8 | 0.00 | 0.00 | 0.00 | 33 | 1006.8 |
| 20260505050300 | 16 | 189 | 3.2 | 8.0 | 0.00 | 0.00 | 0.00 | 33 | 1006.7 |
| 20260505050159 | 16 | 170 | 3.2 | 8.0 | 0.00 | 0.00 | 0.00 | 32 | 1006.7 |
| 20260505041700 | 16 | 355 | 3.2 | 8.0 | 0.00 | 0.00 | 0.00 | 28 | 1006.1 |
| 20260505041600 | 16 | 198 | 3.2 | 8.0 | 0.00 | 0.00 | 0.00 | 28 | 1006.1 |
| 20260505041500 | 16 | 170 | 1.6 | 8.0 | 0.00 | 0.00 | 0.00 | 29 | 1006.1 |
| 20260505041359 | 16 | 160 | 3.2 | 8.0 | 0.00 | 0.00 | 0.00 | 28 | 1006.1 |
| 20260505041301 | 16 | 164 | 3.2 | 8.0 | 0.00 | 0.00 | 0.00 | 28 | 1006.1 |
| 20260505041159 | 16 | 155 | 4.8 | 8.0 | 0.00 | 0.00 | 0.00 | 28 | 1006.1 |
| 20260505041100 | 16 | 126 | 1.6 | 8.0 | 0.00 | 0.00 | 0.00 | 29 | 1006.0 |
| 20260505041000 | 16 | 123 | 1.6 | 8.0 | 0.00 | 0.00 | 0.00 | 29 | 1006.0 |
| 20260505040900 | 16 | 142 | 4.8 | 8.0 | 0.00 | 0.00 | 0.00 | 28 | 1006.0 |
| 20260505040759 | 16 | 125 | 4.8 | 8.0 | 0.00 | 0.00 | 0.00 | 28 | 1006.0 |
| 20260505040700 | 16 | 175 | 4.8 | 8.0 | 0.00 | 0.00 | 0.00 | 29 | 1005.9 |
| 20260505040600 | 16 | 196 | 1.6 | 6.4 | 0.00 | 0.00 | 0.00 | 28 | 1006.0 |
| 20260505040500 | 16 | 224 | 1.6 | 6.4 | 0.00 | 0.00 | 0.00 | 29 | 1005.9 |
| 20260505040301 | 16 | 148 | 3.2 | 6.4 | 0.00 | 0.00 | 0.00 | 28 | 1005.8 |
| 20260505040159 | 16 | 72 | 1.6 | 6.4 | 0.00 | 0.00 | 0.00 | 29 | 1005.8 |
| 20260505040004 | 16 | 76 | 3.2 | 6.4 | 0.00 | 0.00 | 0.00 | 27 | 1005.8 |
| 20260505035759 | 17 | 78 | 1.6 | 3.2 | 0.00 | 0.00 | 0.00 | 27 | 1005.7 |
| 20260505035659 | 17 | 69 | 1.6 | 3.2 | 0.00 | 0.00 | 0.00 | 27 | 1005.7 |
| 20260505035600 | 17 | 63 | 1.6 | 4.8 | 0.00 | 0.00 | 0.00 | 28 | 1005.7 |
| 20260505035400 | 17 | 63 | 1.6 | 4.8 | 0.00 | 0.00 | 0.00 | 28 | 1005.7 |
| 20260505035300 | 17 | 63 | 0.0 | 4.8 | 0.00 | 0.00 | 0.00 | 27 | 1005.7 |
| 20260505035159 | 17 | 63 | 0.0 | 4.8 | 0.00 | 0.00 | 0.00 | 28 | 1005.7 |
| 20260505035100 | 17 | 63 | 1.6 | 4.8 | 0.00 | 0.00 | 0.00 | 28 | 1005.7 |
| 20260505035001 | 17 | 101 | 1.6 | 4.8 | 0.00 | 0.00 | 0.00 | 29 | 1005.7 |
| 20260505034901 | 17 | 101 | 0.0 | 4.8 | 0.00 | 0.00 | 0.00 | 28 | 1005.6 |
| 20260505034800 | 17 | 77 | 1.6 | 4.8 | 0.00 | 0.00 | 0.00 | 28 | 1005.7 |
| 20260505034700 | 17 | 76 | 3.2 | 4.8 | 0.00 | 0.00 | 0.00 | 27 | 1005.6 |
| 20260505034601 | 17 | 55 | 1.6 | 4.8 | 0.00 | 0.00 | 0.00 | 27 | 1005.6 |
| 20260505034259 | 17 | 95 | 0.0 | 4.8 | 0.00 | 0.00 | 0.00 | 27 | 1005.6 |
| 20260505034159 | 17 | 107 | 1.6 | 3.2 | 0.00 | 0.00 | 0.00 | 27 | 1005.6 |
| 20260505033959 | 17 | 107 | 1.6 | 3.2 | 0.00 | 0.00 | 0.00 | 28 | 1005.6 |
| 20260505033859 | 17 | 107 | 1.6 | 3.2 | 0.00 | 0.00 | 0.00 | 28 | 1005.6 |
| 20260505033800 | 17 | 107 | 1.6 | 3.2 | 0.00 | 0.00 | 0.00 | 27 | 1005.6 |
| 20260505033559 | 17 | 96 | 1.6 | 3.2 | 0.00 | 0.00 | 0.00 | 27 | 1005.6 |
| 20260505033459 | 17 | 55 | 0.0 | 3.2 | 0.00 | 0.00 | 0.00 | 27 | 1005.5 |
| 20260505033400 | 17 | 55 | 0.0 | 3.2 | 0.00 | 0.00 | 0.00 | 27 | 1005.5 |
| 20260505033200 | 17 | 55 | 0.0 | 6.4 | 0.00 | 0.00 | 0.00 | 27 | 1005.5 |
| 20260505033059 | 17 | 55 | 0.0 | 6.4 | 0.00 | 0.00 | 0.00 | 27 | 1005.5 |
| 20260505033000 | 17 | 55 | 1.6 | 6.4 | 0.00 | 0.00 | 0.00 | 28 | 1005.4 |
| 20260505032859 | 17 | 55 | 0.0 | 6.4 | 0.00 | 0.00 | 0.00 | 28 | 1005.4 |
| 20260505032759 | 17 | 55 | 0.0 | 6.4 | 0.00 | 0.00 | 0.00 | 27 | 1005.4 |
| 20260505032659 | 17 | 55 | 0.0 | 6.4 | 0.00 | 0.00 | 0.00 | 27 | 1005.4 |
| 20260505032600 | 17 | 55 | 0.0 | 6.4 | 0.00 | 0.00 | 0.00 | 26 | 1005.4 |
| 20260505032459 | 17 | 55 | 1.6 | 6.4 | 0.00 | 0.00 | 0.00 | 27 | 1005.4 |
| 20260505032359 | 17 | 55 | 1.6 | 6.4 | 0.00 | 0.00 | 0.00 | 28 | 1005.4 |
| 20260505032300 | 17 | 44 | 6.4 | 6.4 | 0.00 | 0.00 | 0.00 | 28 | 1005.4 |
| 20260505032159 | 17 | 46 | 1.6 | 6.4 | 0.00 | 0.00 | 0.00 | 27 | 1005.4 |
| 20260505032059 | 17 | 47 | 1.6 | 6.4 | 0.00 | 0.00 | 0.00 | 27 | 1005.4 |
| 20260505032000 | 17 | 85 | 3.2 | 6.4 | 0.00 | 0.00 | 0.00 | 27 | 1005.3 |
| 20260505031900 | 17 | 38 | 4.8 | 4.8 | 0.00 | 0.00 | 0.00 | 27 | 1005.3 |
| 20260505031759 | 17 | 71 | 1.6 | 4.8 | 0.00 | 0.00 | 0.00 | 27 | 1005.3 |
| 20260505031700 | 17 | 86 | 3.2 | 4.8 | 0.00 | 0.00 | 0.00 | 28 | 1005.3 |
| 20260505031559 | 17 | 69 | 1.6 | 4.8 | 0.00 | 0.00 | 0.00 | 28 | 1005.3 |
| 20260505031501 | 17 | 68 | 0.0 | 4.8 | 0.00 | 0.00 | 0.00 | 27 | 1005.3 |
| 20260505031359 | 17 | 68 | 0.0 | 4.8 | 0.00 | 0.00 | 0.00 | 28 | 1005.3 |
| 20260505031300 | 17 | 55 | 1.6 | 4.8 | 0.00 | 0.00 | 0.00 | 28 | 1005.3 |
| 20260505031200 | 17 | 55 | 1.6 | 4.8 | 0.00 | 0.00 | 0.00 | 28 | 1005.3 |
| 20260505031100 | 17 | 56 | 1.6 | 4.8 | 0.00 | 0.00 | 0.00 | 27 | 1005.3 |
| 20260505030959 | 17 | 57 | 3.2 | 4.8 | 0.00 | 0.00 | 0.00 | 27 | 1005.3 |
| 20260505030800 | 17 | 61 | 0.0 | 4.8 | 0.00 | 0.00 | 0.00 | 27 | 1005.2 |
| 20260505030659 | 17 | 52 | 3.2 | 4.8 | 0.00 | 0.00 | 0.00 | 27 | 1005.2 |
| 20260505030600 | 17 | 49 | 1.6 | 4.8 | 0.00 | 0.00 | 0.00 | 27 | 1005.2 |
| 20260505030500 | 17 | 61 | 1.6 | 4.8 | 0.00 | 0.00 | 0.00 | 28 | 1005.2 |
| 20260505030359 | 17 | 51 | 1.6 | 4.8 | 0.00 | 0.00 | 0.00 | 28 | 1005.2 |
| 20260505030259 | 17 | 57 | 0.0 | 4.8 | 0.00 | 0.00 | 0.00 | 28 | 1005.2 |
| 20260505030201 | 17 | 39 | 1.6 | 4.8 | 0.00 | 0.00 | 0.00 | 28 | 1005.2 |
| 20260505030059 | 17 | 55 | 1.6 | 4.8 | 0.00 | 0.00 | 0.00 | 28 | 1005.2 |
| 20260505025901 | 17 | 79 | 3.2 | 3.2 | 0.00 | 0.00 | 0.00 | 28 | 1005.1 |
| 20260505025759 | 17 | 79 | 1.6 | 3.2 | 0.00 | 0.00 | 0.00 | 27 | 1005.1 |
| 20260505025600 | 17 | 79 | 1.6 | 3.2 | 0.00 | 0.00 | 0.00 | 27 | 1005.1 |
| 20260505025359 | 17 | 69 | 1.6 | 3.2 | 0.00 | 0.00 | 0.00 | 27 | 1005.1 |
| 20260505025259 | 17 | 69 | 1.6 | 4.8 | 0.00 | 0.00 | 0.00 | 28 | 1005.1 |
| 20260505025200 | 17 | 69 | 1.6 | 4.8 | 0.00 | 0.00 | 0.00 | 27 | 1005.1 |
| 20260505025100 | 18 | 69 | 1.6 | 4.8 | 0.00 | 0.00 | 0.00 | 27 | 1005.1 |
| 20260505025000 | 18 | 69 | 3.2 | 4.8 | 0.00 | 0.00 | 0.00 | 27 | 1005.1 |
| 20260505024900 | 18 | 69 | 1.6 | 4.8 | 0.00 | 0.00 | 0.00 | 27 | 1005.1 |
| 20260505024800 | 18 | 69 | 0.0 | 4.8 | 0.00 | 0.00 | 0.00 | 27 | 1005.1 |
| 20260505024659 | 18 | 69 | 1.6 | 4.8 | 0.00 | 0.00 | 0.00 | 26 | 1005.1 |
| 20260505024559 | 18 | 69 | 1.6 | 4.8 | 0.00 | 0.00 | 0.00 | 26 | 1005.1 |
| 20260505024500 | 18 | 73 | 3.2 | 4.8 | 0.00 | 0.00 | 0.00 | 26 | 1005.1 |
| 20260505024400 | 18 | 80 | 1.6 | 3.2 | 0.00 | 0.00 | 0.00 | 26 | 1005.1 |
| 20260505024300 | 18 | 80 | 1.6 | 4.8 | 0.00 | 0.00 | 0.00 | 26 | 1005.1 |
| 20260505024159 | 18 | 78 | 3.2 | 4.8 | 0.00 | 0.00 | 0.00 | 26 | 1005.1 |
| 20260505024100 | 18 | 84 | 3.2 | 4.8 | 0.00 | 0.00 | 0.00 | 25 | 1005.1 |
| 20260505023858 | 18 | 84 | 0.0 | 4.8 | 0.00 | 0.00 | 0.00 | 26 | 1005.0 |
| 20260505023800 | 18 | 81 | 0.0 | 4.8 | 0.00 | 0.00 | 0.00 | 25 | 1005.0 |
| 20260505023501 | 18 | 57 | 1.6 | 4.8 | 0.00 | 0.00 | 0.00 | 25 | 1005.0 |
| 20260505023259 | 18 | 125 | 0.0 | 3.2 | 0.00 | 0.00 | 0.00 | 24 | 1005.0 |
| 20260505023200 | 18 | 125 | 1.6 | 3.2 | 0.00 | 0.00 | 0.00 | 24 | 1005.0 |
| 20260505023100 | 18 | 125 | 1.6 | 6.4 | 0.00 | 0.00 | 0.00 | 24 | 1005.0 |
| 20260505023001 | 18 | 144 | 1.6 | 6.4 | 0.00 | 0.00 | 0.00 | 24 | 1004.9 |
| 20260505022900 | 18 | 154 | 0.0 | 6.4 | 0.00 | 0.00 | 0.00 | 23 | 1004.9 |
| 20260505022800 | 18 | 154 | 0.0 | 6.4 | 0.00 | 0.00 | 0.00 | 23 | 1005.0 |
| 20260505022659 | 18 | 154 | 0.0 | 6.4 | 0.00 | 0.00 | 0.00 | 23 | 1004.9 |
| 20260505022401 | 18 | 171 | 0.0 | 6.4 | 0.00 | 0.00 | 0.00 | 23 | 1004.9 |
| 20260505022300 | 18 | 171 | 0.0 | 6.4 | 0.00 | 0.00 | 0.00 | 23 | 1004.8 |
| 20260505022200 | 18 | 146 | 3.2 | 6.4 | 0.00 | 0.00 | 0.00 | 23 | 1004.9 |
| 20260505022100 | 19 | 162 | 1.6 | 6.4 | 0.00 | 0.00 | 0.00 | 23 | 1004.8 |
| 20260505022000 | 19 | 225 | 3.2 | 6.4 | 0.00 | 0.00 | 0.00 | 24 | 1004.8 |
| 20260505021901 | 19 | 167 | 6.4 | 6.4 | 0.00 | 0.00 | 0.00 | 24 | 1004.9 |
| 20260505021800 | 19 | 190 | 1.6 | 6.4 | 0.00 | 0.00 | 0.00 | 23 | 1004.8 |
| 20260505021659 | 19 | 143 | 3.2 | 6.4 | 0.00 | 0.00 | 0.00 | 23 | 1004.9 |
| 20260505021600 | 19 | 216 | 1.6 | 6.4 | 0.00 | 0.00 | 0.00 | 23 | 1004.8 |
| 20260505021501 | 19 | 252 | 3.2 | 6.4 | 0.00 | 0.00 | 0.00 | 23 | 1004.8 |
| 20260505021401 | 19 | 161 | 0.0 | 6.4 | 0.00 | 0.00 | 0.00 | 23 | 1004.8 |
| 20260505021259 | 19 | 154 | 1.6 | 9.7 | 0.00 | 0.00 | 0.00 | 22 | 1004.9 |
| 20260505021200 | 19 | 190 | 1.6 | 9.7 | 0.00 | 0.00 | 0.00 | 23 | 1004.8 |
| 20260505021100 | 19 | 191 | 0.0 | 9.7 | 0.00 | 0.00 | 0.00 | 23 | 1004.8 |
| 20260505020859 | 19 | 134 | 1.6 | 9.7 | 0.00 | 0.00 | 0.00 | 22 | 1004.8 |
| 20260505020800 | 19 | 175 | 1.6 | 9.7 | 0.00 | 0.00 | 0.00 | 22 | 1004.8 |
| 20260505020700 | 19 | 165 | 1.6 | 9.7 | 0.00 | 0.00 | 0.00 | 22 | 1004.7 |
| 20260505020559 | 19 | 198 | 0.0 | 9.7 | 0.00 | 0.00 | 0.00 | 22 | 1004.7 |
| 20260505020459 | 20 | 180 | 6.4 | 9.7 | 0.00 | 0.00 | 0.00 | 23 | 1004.7 |
| 20260505020259 | 20 | 161 | 0.0 | 6.4 | 0.00 | 0.00 | 0.00 | 23 | 1004.7 |
| 20260505020002 | 20 | 209 | 3.2 | 6.4 | 0.00 | 0.00 | 0.00 | 22 | 1004.7 |
| 20260505015900 | 20 | 176 | 0.0 | 6.4 | 0.00 | 0.00 | 0.00 | 22 | 1004.7 |
| 20260505015801 | 20 | 229 | 4.8 | 6.4 | 0.00 | 0.00 | 0.00 | 21 | 1004.7 |
| 20260505015659 | 20 | 182 | 3.2 | 6.4 | 0.00 | 0.00 | 0.00 | 23 | 1004.7 |
| 20260505015559 | 20 | 184 | 3.2 | 6.4 | 0.00 | 0.00 | 0.00 | 23 | 1004.7 |
| 20260505015500 | 20 | 227 | 0.0 | 6.4 | 0.00 | 0.00 | 0.00 | 22 | 1004.7 |
| 20260505015300 | 20 | 192 | 4.8 | 6.4 | 0.00 | 0.00 | 0.00 | 22 | 1004.7 |
| 20260505015159 | 20 | 182 | 1.6 | 6.4 | 0.00 | 0.00 | 0.00 | 22 | 1004.7 |
| 20260505015059 | 20 | 192 | 3.2 | 6.4 | 0.00 | 0.00 | 0.00 | 22 | 1004.6 |
| 20260505014959 | 20 | 189 | 1.6 | 8.0 | 0.00 | 0.00 | 0.00 | 21 | 1004.6 |
| 20260505014900 | 20 | 219 | 1.6 | 8.0 | 0.00 | 0.00 | 0.00 | 22 | 1004.7 |
| 20260505014659 | 20 | 144 | 4.8 | 8.0 | 0.00 | 0.00 | 0.00 | 21 | 1004.6 |
| 20260505014600 | 20 | 267 | 3.2 | 8.0 | 0.00 | 0.00 | 0.00 | 22 | 1004.6 |
| 20260505014500 | 20 | 172 | 4.8 | 8.0 | 0.00 | 0.00 | 0.00 | 22 | 1004.6 |
| 20260505014400 | 20 | 234 | 3.2 | 8.0 | 0.00 | 0.00 | 0.00 | 22 | 1004.6 |
| 20260505014300 | 20 | 220 | 6.4 | 8.0 | 0.00 | 0.00 | 0.00 | 22 | 1004.6 |
| 20260505014201 | 20 | 198 | 4.8 | 8.0 | 0.00 | 0.00 | 0.00 | 22 | 1004.7 |
| 20260505014101 | 20 | 191 | 4.8 | 6.4 | 0.00 | 0.00 | 0.00 | 22 | 1004.7 |
| 20260505013900 | 20 | 216 | 6.4 | 6.4 | 0.00 | 0.00 | 0.00 | 22 | 1004.6 |
| 20260505013759 | 20 | 151 | 0.0 | 6.4 | 0.00 | 0.00 | 0.00 | 21 | 1004.6 |
| 20260505013700 | 20 | 193 | 4.8 | 6.4 | 0.00 | 0.00 | 0.00 | 22 | 1004.7 |
| 20260505013559 | 20 | 248 | 3.2 | 9.7 | 0.00 | 0.00 | 0.00 | 21 | 1004.6 |
| 20260505013459 | 20 | 215 | 0.0 | 9.7 | 0.00 | 0.00 | 0.00 | 21 | 1004.6 |
| 20260505013259 | 20 | 219 | 3.2 | 14.5 | 0.00 | 0.00 | 0.00 | 21 | 1004.6 |
| 20260505013159 | 20 | 159 | 3.2 | 14.5 | 0.00 | 0.00 | 0.00 | 21 | 1004.6 |
| 20260505012859 | 20 | 175 | 4.8 | 14.5 | 0.00 | 0.00 | 0.00 | 21 | 1004.7 |
| 20260505012800 | 20 | 227 | 4.8 | 14.5 | 0.00 | 0.00 | 0.00 | 21 | 1004.7 |
| 20260505012559 | 20 | 226 | 4.8 | 14.5 | 0.00 | 0.00 | 0.00 | 21 | 1004.7 |
| 20260505012459 | 20 | 194 | 4.8 | 14.5 | 0.00 | 0.00 | 0.00 | 22 | 1004.7 |
| 20260505012400 | 20 | 165 | 6.4 | 14.5 | 0.00 | 0.00 | 0.00 | 21 | 1004.7 |
| 20260505012259 | 20 | 209 | 3.2 | 14.5 | 0.00 | 0.00 | 0.00 | 22 | 1004.7 |
| 20260505012159 | 20 | 209 | 6.4 | 14.5 | 0.00 | 0.00 | 0.00 | 22 | 1004.7 |
| 20260505012059 | 20 | 199 | 4.8 | 14.5 | 0.00 | 0.00 | 0.00 | 21 | 1004.7 |
| 20260505012000 | 20 | 197 | 4.8 | 14.5 | 0.00 | 0.00 | 0.00 | 21 | 1004.7 |
| 20260505011901 | 20 | 212 | 11.3 | 14.5 | 0.00 | 0.00 | 0.00 | 22 | 1004.8 |
| 20260505011759 | 20 | 212 | 8.0 | 14.5 | 0.00 | 0.00 | 0.00 | 21 | 1004.8 |
| 20260505011659 | 20 | 174 | 11.3 | 14.5 | 0.00 | 0.00 | 0.00 | 21 | 1004.8 |
| 20260505011559 | 20 | 195 | 3.2 | 14.5 | 0.00 | 0.00 | 0.00 | 22 | 1004.8 |
| 20260505011500 | 20 | 151 | 3.2 | 14.5 | 0.00 | 0.00 | 0.00 | 22 | 1004.8 |
| 20260505011359 | 20 | 213 | 6.4 | 14.5 | 0.00 | 0.00 | 0.00 | 22 | 1004.8 |
| 20260505011259 | 20 | 154 | 3.2 | 14.5 | 0.00 | 0.00 | 0.00 | 21 | 1004.8 |
| 20260505011159 | 20 | 239 | 3.2 | 14.5 | 0.00 | 0.00 | 0.00 | 22 | 1004.8 |
| 20260505010901 | 20 | 161 | 1.6 | 14.5 | 0.00 | 0.00 | 0.00 | 22 | 1004.8 |
| 20260505010801 | 21 | 215 | 6.4 | 14.5 | 0.00 | 0.00 | 0.00 | 21 | 1004.8 |
| 20260505010659 | 21 | 188 | 9.7 | 14.5 | 0.00 | 0.00 | 0.00 | 22 | 1004.9 |
| 20260505010600 | 21 | 148 | 3.2 | 14.5 | 0.00 | 0.00 | 0.00 | 21 | 1004.8 |
| 20260505010300 | 21 | 176 | 9.7 | 12.9 | 0.00 | 0.00 | 0.00 | 21 | 1004.8 |
| 20260505010159 | 21 | 200 | 12.9 | 12.9 | 0.00 | 0.00 | 0.00 | 21 | 1004.8 |
| 20260505010003 | 21 | 208 | 8.0 | 11.3 | 0.00 | 0.00 | 0.00 | 21 | 1004.9 |
| 20260505005859 | 21 | 197 | 4.8 | 11.3 | 0.00 | 0.00 | 0.00 | 21 | 1004.8 |
| 20260505005659 | 21 | 206 | 6.4 | 11.3 | 0.00 | 0.00 | 0.00 | 21 | 1004.9 |
| 20260505005559 | 21 | 217 | 3.2 | 11.3 | 0.00 | 0.00 | 0.00 | 21 | 1004.9 |
| 20260505005500 | 21 | 180 | 4.8 | 11.3 | 0.00 | 0.00 | 0.00 | 20 | 1004.9 |
| 20260505005401 | 21 | 158 | 3.2 | 11.3 | 0.00 | 0.00 | 0.00 | 20 | 1004.9 |
| 20260505005259 | 21 | 201 | 9.7 | 11.3 | 0.00 | 0.00 | 0.00 | 21 | 1004.9 |
| 20260505005159 | 21 | 196 | 3.2 | 11.3 | 0.00 | 0.00 | 0.00 | 21 | 1004.9 |
| 20260505005059 | 21 | 217 | 1.6 | 11.3 | 0.00 | 0.00 | 0.00 | 21 | 1004.9 |
| 20260505005000 | 21 | 230 | 3.2 | 11.3 | 0.00 | 0.00 | 0.00 | 22 | 1004.9 |
| 20260505004859 | 21 | 240 | 3.2 | 11.3 | 0.00 | 0.00 | 0.00 | 22 | 1004.9 |
| 20260505004759 | 21 | 161 | 1.6 | 11.3 | 0.00 | 0.00 | 0.00 | 22 | 1004.9 |
| 20260505004659 | 21 | 209 | 1.6 | 11.3 | 0.00 | 0.00 | 0.00 | 22 | 1004.9 |
| 20260505004559 | 21 | 165 | 8.0 | 11.3 | 0.00 | 0.00 | 0.00 | 21 | 1004.9 |
| 20260505004500 | 21 | 129 | 6.4 | 11.3 | 0.00 | 0.00 | 0.00 | 21 | 1004.9 |
| 20260505004400 | 21 | 124 | 3.2 | 11.3 | 0.00 | 0.00 | 0.00 | 22 | 1004.8 |
| 20260505004300 | 21 | 182 | 6.4 | 11.3 | 0.00 | 0.00 | 0.00 | 21 | 1004.9 |
| 20260505004200 | 21 | 202 | 8.0 | 11.3 | 0.00 | 0.00 | 0.00 | 21 | 1004.9 |
| 20260505003959 | 21 | 203 | 4.8 | 12.9 | 0.00 | 0.00 | 0.00 | 21 | 1004.9 |
| 20260505003859 | 21 | 213 | 8.0 | 16.1 | 0.00 | 0.00 | 0.00 | 22 | 1004.9 |
| 20260505003759 | 21 | 198 | 4.8 | 19.3 | 0.00 | 0.00 | 0.00 | 21 | 1004.9 |
| 20260505003659 | 21 | 152 | 4.8 | 19.3 | 0.00 | 0.00 | 0.00 | 21 | 1005.0 |
| 20260505003459 | 21 | 162 | 1.6 | 19.3 | 0.00 | 0.00 | 0.00 | 22 | 1004.9 |
| 20260505003359 | 21 | 163 | 3.2 | 19.3 | 0.00 | 0.00 | 0.00 | 21 | 1004.9 |
| 20260505003259 | 21 | 190 | 1.6 | 19.3 | 0.00 | 0.00 | 0.00 | 21 | 1005.0 |
| 20260505003200 | 21 | 192 | 4.8 | 19.3 | 0.00 | 0.00 | 0.00 | 22 | 1005.0 |
| 20260505003059 | 21 | 223 | 4.8 | 19.3 | 0.00 | 0.00 | 0.00 | 21 | 1005.0 |
| 20260505002959 | 21 | 212 | 9.7 | 19.3 | 0.00 | 0.00 | 0.00 | 22 | 1005.1 |
| 20260505002859 | 22 | 208 | 9.7 | 16.1 | 0.00 | 0.00 | 0.00 | 21 | 1005.0 |
| 20260505002800 | 22 | 183 | 11.3 | 16.1 | 0.00 | 0.00 | 0.00 | 20 | 1005.1 |
| 20260505002600 | 22 | 190 | 4.8 | 16.1 | 0.00 | 0.00 | 0.00 | 20 | 1005.0 |
| 20260505002459 | 22 | 173 | 3.2 | 16.1 | 0.00 | 0.00 | 0.00 | 20 | 1005.1 |
| 20260505002359 | 22 | 254 | 14.5 | 14.5 | 0.00 | 0.00 | 0.00 | 19 | 1005.1 |
| 20260505002200 | 22 | 186 | 6.4 | 14.5 | 0.00 | 0.00 | 0.00 | 18 | 1005.0 |
| 20260505002101 | 22 | 182 | 3.2 | 14.5 | 0.00 | 0.00 | 0.00 | 18 | 1005.0 |
| 20260505002000 | 22 | 247 | 4.8 | 14.5 | 0.00 | 0.00 | 0.00 | 19 | 1005.0 |
| 20260505001859 | 22 | 232 | 4.8 | 14.5 | 0.00 | 0.00 | 0.00 | 18 | 1005.1 |
| 20260505001759 | 22 | 214 | 4.8 | 14.5 | 0.00 | 0.00 | 0.00 | 20 | 1005.1 |
| 20260505001700 | 22 | 259 | 1.6 | 14.5 | 0.00 | 0.00 | 0.00 | 20 | 1005.1 |
| 20260505001600 | 22 | 227 | 6.4 | 14.5 | 0.00 | 0.00 | 0.00 | 18 | 1005.1 |
| 20260505001500 | 22 | 242 | 6.4 | 14.5 | 0.00 | 0.00 | 0.00 | 18 | 1005.1 |
| 20260505001400 | 22 | 184 | 4.8 | 14.5 | 0.00 | 0.00 | 0.00 | 18 | 1005.0 |
| 20260505001259 | 22 | 218 | 12.9 | 12.9 | 0.00 | 0.00 | 0.00 | 17 | 1005.0 |
| 20260505001200 | 22 | 253 | 3.2 | 12.9 | 0.00 | 0.00 | 0.00 | 18 | 1005.1 |
| 20260505001100 | 22 | 232 | 6.4 | 12.9 | 0.00 | 0.00 | 0.00 | 19 | 1005.1 |
| 20260505000959 | 22 | 228 | 12.9 | 12.9 | 0.00 | 0.00 | 0.00 | 18 | 1005.1 |
| 20260505000900 | 22 | 222 | 8.0 | 11.3 | 0.00 | 0.00 | 0.00 | 20 | 1005.0 |
| 20260505000800 | 22 | 246 | 4.8 | 11.3 | 0.00 | 0.00 | 0.00 | 19 | 1005.1 |
| 20260505000659 | 22 | 257 | 3.2 | 11.3 | 0.00 | 0.00 | 0.00 | 18 | 1005.1 |
| 20260505000500 | 22 | 134 | 3.2 | 11.3 | 0.00 | 0.00 | 0.00 | 19 | 1005.1 |
| 20260505000359 | 22 | 177 | 3.2 | 12.9 | 0.00 | 0.00 | 0.00 | 19 | 1005.1 |
| 20260505000259 | 22 | 200 | 9.7 | 12.9 | 0.00 | 0.00 | 0.00 | 20 | 1005.1 |
| 20260505000201 | 22 | 198 | 3.2 | 14.5 | 0.00 | 0.00 | 0.00 | 20 | 1005.1 |
| 20260505000059 | 22 | 250 | 1.6 | 14.5 | 0.00 | 0.00 | 0.00 | 20 | 1005.1 |
| 20260505000005 | 22 | 196 | 1.6 | 14.5 | 0.00 | 0.00 | 0.00 | 18 | 1005.1 |
| 20260504235900 | 22 | 216 | 3.2 | 14.5 | 0.00 | 0.00 | 0.00 | 19 | 1005.1 |
| 20260504235759 | 22 | 171 | 1.6 | 14.5 | 0.00 | 0.00 | 0.00 | 19 | 1005.1 |
| 20260504235659 | 22 | 254 | 4.8 | 14.5 | 0.00 | 0.00 | 0.00 | 20 | 1005.1 |
| 20260504235600 | 22 | 284 | 3.2 | 14.5 | 0.00 | 0.00 | 0.00 | 19 | 1005.2 |
| 20260504235500 | 22 | 213 | 11.3 | 14.5 | 0.00 | 0.00 | 0.00 | 19 | 1005.2 |
| 20260504235359 | 22 | 160 | 8.0 | 14.5 | 0.00 | 0.00 | 0.00 | 19 | 1005.2 |
| 20260504235301 | 22 | 198 | 8.0 | 12.9 | 0.00 | 0.00 | 0.00 | 19 | 1005.2 |
| 20260504235000 | 22 | 257 | 4.8 | 11.3 | 0.00 | 0.00 | 0.00 | 21 | 1005.2 |
| 20260504234859 | 22 | 207 | 3.2 | 11.3 | 0.00 | 0.00 | 0.00 | 20 | 1005.2 |
| 20260504234800 | 22 | 269 | 3.2 | 11.3 | 0.00 | 0.00 | 0.00 | 20 | 1005.2 |
| 20260504234700 | 22 | 217 | 4.8 | 16.1 | 0.00 | 0.00 | 0.00 | 20 | 1005.2 |
| 20260504234559 | 22 | 207 | 4.8 | 16.1 | 0.00 | 0.00 | 0.00 | 20 | 1005.2 |
| 20260504234500 | 22 | 211 | 3.2 | 16.1 | 0.00 | 0.00 | 0.00 | 21 | 1005.2 |
| 20260504234259 | 22 | 202 | 3.2 | 16.1 | 0.00 | 0.00 | 0.00 | 21 | 1005.2 |
| 20260504234159 | 22 | 294 | 1.6 | 16.1 | 0.00 | 0.00 | 0.00 | 20 | 1005.2 |
| 20260504234100 | 22 | 209 | 11.3 | 16.1 | 0.00 | 0.00 | 0.00 | 21 | 1005.2 |
| 20260504234000 | 22 | 202 | 8.0 | 16.1 | 0.00 | 0.00 | 0.00 | 20 | 1005.2 |
| 20260504233800 | 22 | 234 | 9.7 | 16.1 | 0.00 | 0.00 | 0.00 | 19 | 1005.2 |
| 20260504233600 | 22 | 248 | 9.7 | 12.9 | 0.00 | 0.00 | 0.00 | 21 | 1005.2 |
| 20260504233400 | 22 | 220 | 6.4 | 12.9 | 0.00 | 0.00 | 0.00 | 21 | 1005.2 |
| 20260504233259 | 22 | 215 | 4.8 | 12.9 | 0.00 | 0.00 | 0.00 | 19 | 1005.2 |
| 20260504233200 | 22 | 198 | 4.8 | 16.1 | 0.00 | 0.00 | 0.00 | 19 | 1005.2 |
| 20260504233059 | 22 | 212 | 4.8 | 16.1 | 0.00 | 0.00 | 0.00 | 21 | 1005.2 |
| 20260504233000 | 22 | 219 | 4.8 | 16.1 | 0.00 | 0.00 | 0.00 | 20 | 1005.2 |
| 20260504232800 | 22 | 223 | 1.6 | 16.1 | 0.00 | 0.00 | 0.00 | 18 | 1005.2 |
| 20260504232659 | 22 | 182 | 12.9 | 16.1 | 0.00 | 0.00 | 0.00 | 19 | 1005.2 |
| 20260504232600 | 22 | 221 | 3.2 | 16.1 | 0.00 | 0.00 | 0.00 | 20 | 1005.2 |
| 20260504232500 | 22 | 222 | 8.0 | 16.1 | 0.00 | 0.00 | 0.00 | 20 | 1005.2 |
| 20260504232359 | 22 | 347 | 4.8 | 16.1 | 0.00 | 0.00 | 0.00 | 21 | 1005.2 |
| 20260504232259 | 22 | 278 | 16.1 | 16.1 | 0.00 | 0.00 | 0.00 | 19 | 1005.2 |
| 20260504232200 | 22 | 240 | 14.5 | 14.5 | 0.00 | 0.00 | 0.00 | 20 | 1005.2 |
| 20260504232059 | 22 | 205 | 11.3 | 14.5 | 0.00 | 0.00 | 0.00 | 20 | 1005.2 |
| 20260504232000 | 22 | 204 | 4.8 | 14.5 | 0.00 | 0.00 | 0.00 | 20 | 1005.2 |
| 20260504231859 | 22 | 257 | 8.0 | 14.5 | 0.00 | 0.00 | 0.00 | 20 | 1005.2 |
| 20260504231800 | 22 | 238 | 9.7 | 14.5 | 0.00 | 0.00 | 0.00 | 20 | 1005.2 |
| 20260504231600 | 22 | 292 | 0.0 | 14.5 | 0.00 | 0.00 | 0.00 | 20 | 1005.2 |
| 20260504231459 | 22 | 251 | 4.8 | 17.7 | 0.00 | 0.00 | 0.00 | 20 | 1005.2 |
| 20260504231259 | 22 | 203 | 6.4 | 17.7 | 0.00 | 0.00 | 0.00 | 19 | 1005.2 |
| 20260504231200 | 22 | 188 | 6.4 | 17.7 | 0.00 | 0.00 | 0.00 | 22 | 1005.2 |
| 20260504231059 | 22 | 205 | 8.0 | 17.7 | 0.00 | 0.00 | 0.00 | 21 | 1005.2 |
| 20260504231000 | 22 | 298 | 1.6 | 17.7 | 0.00 | 0.00 | 0.00 | 20 | 1005.1 |
| 20260504230859 | 22 | 202 | 1.6 | 17.7 | 0.00 | 0.00 | 0.00 | 21 | 1005.2 |
| 20260504230759 | 22 | 257 | 8.0 | 17.7 | 0.00 | 0.00 | 0.00 | 21 | 1005.2 |
| 20260504230659 | 22 | 248 | 6.4 | 27.4 | 0.00 | 0.00 | 0.00 | 20 | 1005.2 |
| 20260504230559 | 22 | 240 | 11.3 | 27.4 | 0.00 | 0.00 | 0.00 | 21 | 1005.2 |
| 20260504230400 | 23 | 244 | 16.1 | 27.4 | 0.00 | 0.00 | 0.00 | 22 | 1005.1 |
| 20260504230300 | 23 | 243 | 8.0 | 27.4 | 0.00 | 0.00 | 0.00 | 22 | 1005.1 |
| 20260504230200 | 23 | 293 | 6.4 | 27.4 | 0.00 | 0.00 | 0.00 | 21 | 1005.2 |
| 20260504230059 | 23 | 242 | 12.9 | 27.4 | 0.00 | 0.00 | 0.00 | 22 | 1005.2 |
| 20260504230003 | 23 | 240 | 6.4 | 27.4 | 0.00 | 0.00 | 0.00 | 22 | 1005.2 |
| 20260504225902 | 23 | 248 | 8.0 | 27.4 | 0.00 | 0.00 | 0.00 | 20 | 1005.1 |
| 20260504225802 | 23 | 219 | 12.9 | 19.3 | 0.00 | 0.00 | 0.00 | 16 | 1005.1 |
| 20260504225702 | 23 | 244 | 4.8 | 16.1 | 0.00 | 0.00 | 0.00 | 15 | 1005.1 |
| 20260504225501 | 23 | 246 | 6.4 | 16.1 | 0.00 | 0.00 | 0.00 | 15 | 1005.0 |
| 20260504225402 | 23 | 234 | 1.6 | 16.1 | 0.00 | 0.00 | 0.00 | 14 | 1005.1 |
| 20260504225304 | 23 | 215 | 8.0 | 16.1 | 0.00 | 0.00 | 0.00 | 15 | 1005.1 |
| 20260504225202 | 23 | 210 | 8.0 | 16.1 | 0.00 | 0.00 | 0.00 | 18 | 1005.0 |
| 20260504225100 | 23 | 236 | 4.8 | 12.9 | 0.00 | 0.00 | 0.00 | 18 | 1005.1 |
| 20260504225002 | 23 | 262 | 4.8 | 9.7 | 0.00 | 0.00 | 0.00 | 17 | 1005.1 |
| 20260504224903 | 23 | 247 | 6.4 | 11.3 | 0.00 | 0.00 | 0.00 | 18 | 1005.1 |
| 20260504224801 | 23 | 214 | 9.7 | 11.3 | 0.00 | 0.00 | 0.00 | 16 | 1005.1 |
| 20260504224701 | 23 | 300 | 6.4 | 11.3 | 0.00 | 0.00 | 0.00 | 16 | 1005.1 |
| 20260504224601 | 23 | 246 | 3.2 | 12.9 | 0.00 | 0.00 | 0.00 | 16 | 1005.1 |
| 20260504224501 | 23 | 267 | 3.2 | 12.9 | 0.00 | 0.00 | 0.00 | 15 | 1005.2 |
| 20260504224301 | 23 | 215 | 4.8 | 14.5 | 0.00 | 0.00 | 0.00 | 14 | 1005.1 |
| 20260504224202 | 23 | 202 | 4.8 | 14.5 | 0.00 | 0.00 | 0.00 | 16 | 1005.2 |
| 20260504224102 | 23 | 237 | 8.0 | 14.5 | 0.00 | 0.00 | 0.00 | 17 | 1005.1 |
| 20260504224002 | 23 | 239 | 9.7 | 14.5 | 0.00 | 0.00 | 0.00 | 16 | 1005.1 |
| 20260504223901 | 23 | 200 | 3.2 | 14.5 | 0.00 | 0.00 | 0.00 | 17 | 1005.2 |
| 20260504223801 | 23 | 208 | 8.0 | 14.5 | 0.00 | 0.00 | 0.00 | 16 | 1005.1 |
| 20260504223701 | 23 | 231 | 4.8 | 14.5 | 0.00 | 0.00 | 0.00 | 16 | 1005.1 |
| 20260504223600 | 23 | 264 | 4.8 | 14.5 | 0.00 | 0.00 | 0.00 | 16 | 1005.1 |
| 20260504223501 | 23 | 235 | 9.7 | 14.5 | 0.00 | 0.00 | 0.00 | 15 | 1005.2 |
| 20260504223401 | 23 | 290 | 4.8 | 11.3 | 0.00 | 0.00 | 0.00 | 18 | 1005.1 |
| 20260504223301 | 23 | 277 | 4.8 | 11.3 | 0.00 | 0.00 | 0.00 | 18 | 1005.1 |
| 20260504223201 | 23 | 225 | 6.4 | 17.7 | 0.00 | 0.00 | 0.00 | 15 | 1005.1 |
| 20260504223102 | 23 | 238 | 8.0 | 17.7 | 0.00 | 0.00 | 0.00 | 17 | 1005.1 |
| 20260504223001 | 23 | 216 | 4.8 | 17.7 | 0.00 | 0.00 | 0.00 | 17 | 1005.1 |
| 20260504222901 | 23 | 208 | 9.7 | 17.7 | 0.00 | 0.00 | 0.00 | 15 | 1005.1 |
| 20260504222800 | 23 | 228 | 1.6 | 17.7 | 0.00 | 0.00 | 0.00 | 16 | 1005.1 |
| 20260504222601 | 23 | 191 | 6.4 | 17.7 | 0.00 | 0.00 | 0.00 | 14 | 1005.1 |
| 20260504222501 | 23 | 177 | 6.4 | 17.7 | 0.00 | 0.00 | 0.00 | 15 | 1005.2 |
| 20260504222200 | 23 | 231 | 9.7 | 14.5 | 0.00 | 0.00 | 0.00 | 17 | 1005.1 |
| 20260504222002 | 23 | 289 | 6.4 | 8.0 | 0.00 | 0.00 | 0.00 | 16 | 1005.1 |
| 20260504221902 | 23 | 298 | 6.4 | 8.0 | 0.00 | 0.00 | 0.00 | 14 | 1005.1 |
| 20260504221801 | 23 | 246 | 6.4 | 8.0 | 0.00 | 0.00 | 0.00 | 17 | 1005.1 |
| 20260504221700 | 23 | 219 | 4.8 | 8.0 | 0.00 | 0.00 | 0.00 | 16 | 1005.1 |
| 20260504221601 | 23 | 205 | 1.6 | 8.0 | 0.00 | 0.00 | 0.00 | 16 | 1005.2 |
| 20260504221501 | 23 | 203 | 3.2 | 8.0 | 0.00 | 0.00 | 0.00 | 15 | 1005.2 |
| 20260504221400 | 23 | 213 | 4.8 | 9.7 | 0.00 | 0.00 | 0.00 | 17 | 1005.2 |
| 20260504221301 | 23 | 275 | 3.2 | 12.9 | 0.00 | 0.00 | 0.00 | 16 | 1005.2 |
| 20260504221202 | 23 | 317 | 3.2 | 16.1 | 0.00 | 0.00 | 0.00 | 17 | 1005.2 |
| 20260504221102 | 23 | 325 | 3.2 | 16.1 | 0.00 | 0.00 | 0.00 | 17 | 1005.2 |
| 20260504221002 | 23 | 321 | 3.2 | 16.1 | 0.00 | 0.00 | 0.00 | 18 | 1005.2 |
| 20260504220802 | 23 | 295 | 3.2 | 16.1 | 0.00 | 0.00 | 0.00 | 19 | 1005.2 |
| 20260504220701 | 23 | 330 | 4.8 | 17.7 | 0.00 | 0.00 | 0.00 | 15 | 1005.2 |
| 20260504220602 | 23 | 306 | 4.8 | 17.7 | 0.00 | 0.00 | 0.00 | 16 | 1005.3 |
| 20260504220501 | 23 | 191 | 4.8 | 17.7 | 0.00 | 0.00 | 0.00 | 16 | 1005.3 |
| 20260504220400 | 23 | 246 | 6.4 | 17.7 | 0.00 | 0.00 | 0.00 | 16 | 1005.3 |
| 20260504220300 | 23 | 279 | 8.0 | 17.7 | 0.00 | 0.00 | 0.00 | 17 | 1005.3 |
| 20260504220005 | 23 | 198 | 6.4 | 17.7 | 0.00 | 0.00 | 0.00 | 16 | 1005.3 |
| 20260504215900 | 23 | 198 | 14.5 | 17.7 | 0.00 | 0.00 | 0.00 | 16 | 1005.3 |
| 20260504215702 | 23 | 203 | 8.0 | 8.0 | 0.00 | 0.00 | 0.00 | 16 | 1005.3 |
| 20260504215602 | 23 | 125 | 3.2 | 8.0 | 0.00 | 0.00 | 0.00 | 18 | 1005.3 |
| 20260504215401 | 23 | 242 | 4.8 | 8.0 | 0.00 | 0.00 | 0.00 | 14 | 1005.3 |
| 20260504215300 | 23 | 116 | 1.6 | 8.0 | 0.00 | 0.00 | 0.00 | 14 | 1005.3 |
| 20260504215201 | 23 | 115 | 1.6 | 8.0 | 0.00 | 0.00 | 0.00 | 14 | 1005.4 |
| 20260504215100 | 23 | 109 | 0.0 | 8.0 | 0.00 | 0.00 | 0.00 | 14 | 1005.4 |
| 20260504215001 | 23 | 269 | 1.6 | 8.0 | 0.00 | 0.00 | 0.00 | 16 | 1005.4 |
| 20260504214901 | 23 | 185 | 6.4 | 11.3 | 0.00 | 0.00 | 0.00 | 15 | 1005.5 |
| 20260504214801 | 23 | 210 | 3.2 | 11.3 | 0.00 | 0.00 | 0.00 | 14 | 1005.4 |
| 20260504214701 | 23 | 242 | 3.2 | 11.3 | 0.00 | 0.00 | 0.00 | 14 | 1005.5 |
| 20260504214601 | 23 | 145 | 3.2 | 11.3 | 0.00 | 0.00 | 0.00 | 15 | 1005.5 |
| 20260504214502 | 23 | 115 | 3.2 | 11.3 | 0.00 | 0.00 | 0.00 | 14 | 1005.5 |
| 20260504214400 | 23 | 105 | 3.2 | 11.3 | 0.00 | 0.00 | 0.00 | 14 | 1005.6 |
| 20260504214300 | 23 | 165 | 6.4 | 11.3 | 0.00 | 0.00 | 0.00 | 15 | 1005.6 |
| 20260504214200 | 23 | 213 | 3.2 | 11.3 | 0.00 | 0.00 | 0.00 | 14 | 1005.7 |
| 20260504214101 | 23 | 280 | 4.8 | 12.9 | 0.00 | 0.00 | 0.00 | 17 | 1005.7 |
| 20260504214001 | 23 | 288 | 4.8 | 12.9 | 0.00 | 0.00 | 0.00 | 17 | 1005.7 |
| 20260504213902 | 23 | 315 | 1.6 | 12.9 | 0.00 | 0.00 | 0.00 | 18 | 1005.7 |
| 20260504213800 | 23 | 306 | 4.8 | 12.9 | 0.00 | 0.00 | 0.00 | 16 | 1005.7 |
| 20260504213702 | 23 | 285 | 11.3 | 12.9 | 0.00 | 0.00 | 0.00 | 15 | 1005.7 |
| 20260504213602 | 23 | 222 | 6.4 | 12.9 | 0.00 | 0.00 | 0.00 | 17 | 1005.7 |
| 20260504213502 | 23 | 298 | 4.8 | 12.9 | 0.00 | 0.00 | 0.00 | 17 | 1005.8 |
| 20260504213401 | 23 | 259 | 4.8 | 12.9 | 0.00 | 0.00 | 0.00 | 16 | 1005.8 |
| 20260504213300 | 23 | 223 | 4.8 | 12.9 | 0.00 | 0.00 | 0.00 | 15 | 1005.7 |
| 20260504213201 | 24 | 213 | 6.4 | 12.9 | 0.00 | 0.00 | 0.00 | 16 | 1005.8 |
| 20260504213100 | 24 | 119 | 1.6 | 11.3 | 0.00 | 0.00 | 0.00 | 15 | 1005.8 |
| 20260504212901 | 24 | 240 | 6.4 | 12.9 | 0.00 | 0.00 | 0.00 | 16 | 1005.8 |
| 20260504212701 | 24 | 287 | 1.6 | 12.9 | 0.00 | 0.00 | 0.00 | 15 | 1005.9 |
| 20260504212602 | 24 | 329 | 3.2 | 12.9 | 0.00 | 0.00 | 0.00 | 16 | 1005.9 |
| 20260504212502 | 24 | 219 | 3.2 | 12.9 | 0.00 | 0.00 | 0.00 | 17 | 1005.9 |
| 20260504212401 | 24 | 307 | 6.4 | 12.9 | 0.00 | 0.00 | 0.00 | 17 | 1005.9 |
| 20260504212301 | 24 | 274 | 9.7 | 12.9 | 0.00 | 0.00 | 0.00 | 17 | 1005.8 |
| 20260504212101 | 24 | 208 | 3.2 | 4.8 | 0.00 | 0.00 | 0.00 | 15 | 1005.9 |
| 20260504212002 | 24 | 277 | 1.6 | 4.8 | 0.00 | 0.00 | 0.00 | 17 | 1005.9 |
| 20260504211800 | 24 | 5 | 1.6 | 6.4 | 0.00 | 0.00 | 0.00 | 15 | 1005.9 |
| 20260504211701 | 24 | 64 | 1.6 | 6.4 | 0.00 | 0.00 | 0.00 | 16 | 1005.9 |
| 20260504211600 | 24 | 32 | 4.8 | 6.4 | 0.00 | 0.00 | 0.00 | 16 | 1005.9 |
| 20260504211501 | 24 | 15 | 3.2 | 8.0 | 0.00 | 0.00 | 0.00 | 20 | 1006.0 |
| 20260504211402 | 23 | 302 | 1.6 | 8.0 | 0.00 | 0.00 | 0.00 | 16 | 1006.0 |
| 20260504211301 | 23 | 319 | 1.6 | 8.0 | 0.00 | 0.00 | 0.00 | 20 | 1006.0 |
| 20260504211213 | 23 | 310 | 1.6 | 8.0 | 0.00 | 0.00 | 0.00 | 17 | 1006.0 |
| 20260504211101 | 23 | 323 | 3.2 | 8.0 | 0.00 | 0.00 | 0.00 | 16 | 1006.0 |
| 20260504210902 | 23 | 292 | 4.8 | 11.3 | 0.00 | 0.00 | 0.00 | 16 | 1006.0 |
| 20260504210800 | 23 | 303 | 4.8 | 11.3 | 0.00 | 0.00 | 0.00 | 16 | 1006.0 |
| 20260504210701 | 24 | 299 | 3.2 | 11.3 | 0.00 | 0.00 | 0.00 | 16 | 1006.0 |
| 20260504210501 | 24 | 251 | 1.6 | 11.3 | 0.00 | 0.00 | 0.00 | 15 | 1006.1 |
| 20260504210400 | 24 | 320 | 3.2 | 11.3 | 0.00 | 0.00 | 0.00 | 16 | 1006.1 |
| 20260504210300 | 24 | 347 | 1.6 | 11.3 | 0.00 | 0.00 | 0.00 | 17 | 1006.1 |
| 20260504210200 | 24 | 273 | 1.6 | 11.3 | 0.00 | 0.00 | 0.00 | 17 | 1006.1 |
| 20260504210101 | 24 | 269 | 4.8 | 11.3 | 0.00 | 0.00 | 0.00 | 17 | 1006.2 |
| 20260504210006 | 24 | 188 | 9.7 | 9.7 | 0.00 | 0.00 | 0.00 | 18 | 1006.2 |
| 20260504205903 | 24 | 342 | 4.8 | 9.7 | 0.00 | 0.00 | 0.00 | 20 | 1006.1 |
| 20260504205800 | 24 | 192 | 4.8 | 9.7 | 0.00 | 0.00 | 0.00 | 16 | 1006.1 |
| 20260504205700 | 24 | 343 | 3.2 | 9.7 | 0.00 | 0.00 | 0.00 | 17 | 1006.1 |
| 20260504205602 | 24 | 311 | 0.0 | 9.7 | 0.00 | 0.00 | 0.00 | 19 | 1006.1 |
| 20260504205502 | 24 | 314 | 1.6 | 9.7 | 0.00 | 0.00 | 0.00 | 16 | 1006.2 |
| 20260504205401 | 24 | 261 | 6.4 | 11.3 | 0.00 | 0.00 | 0.00 | 19 | 1006.1 |
| 20260504205100 | 23 | 167 | 1.6 | 11.3 | 0.00 | 0.00 | 0.00 | 21 | 1006.1 |
| 20260504205001 | 23 | 232 | 4.8 | 11.3 | 0.00 | 0.00 | 0.00 | 22 | 1006.2 |
| 20260504204701 | 23 | 319 | 1.6 | 11.3 | 0.00 | 0.00 | 0.00 | 16 | 1006.2 |
| 20260504204601 | 23 | 263 | 4.8 | 11.3 | 0.00 | 0.00 | 0.00 | 16 | 1006.2 |
| 20260504204401 | 24 | 172 | 4.8 | 11.3 | 0.00 | 0.00 | 0.00 | 16 | 1006.2 |
| 20260504204300 | 24 | 167 | 3.2 | 11.3 | 0.00 | 0.00 | 0.00 | 17 | 1006.2 |
| 20260504204201 | 24 | 171 | 6.4 | 11.3 | 0.00 | 0.00 | 0.00 | 18 | 1006.2 |
| 20260504204001 | 24 | 340 | 3.2 | 6.4 | 0.00 | 0.00 | 0.00 | 16 | 1006.3 |
| 20260504203901 | 24 | 342 | 1.6 | 8.0 | 0.00 | 0.00 | 0.00 | 19 | 1006.2 |
| 20260504203701 | 24 | 302 | 1.6 | 9.7 | 0.00 | 0.00 | 0.00 | 18 | 1006.3 |
| 20260504203601 | 24 | 318 | 3.2 | 9.7 | 0.00 | 0.00 | 0.00 | 18 | 1006.2 |
| 20260504203402 | 23 | 336 | 3.2 | 14.5 | 0.00 | 0.00 | 0.00 | 20 | 1006.3 |
| 20260504203300 | 23 | 360 | 1.6 | 14.5 | 0.00 | 0.00 | 0.00 | 18 | 1006.3 |
| 20260504203201 | 23 | 349 | 1.6 | 14.5 | 0.00 | 0.00 | 0.00 | 19 | 1006.3 |
| 20260504202901 | 23 | 285 | 4.8 | 14.5 | 0.00 | 0.00 | 0.00 | 18 | 1006.4 |
| 20260504202801 | 23 | 279 | 6.4 | 14.5 | 0.00 | 0.00 | 0.00 | 17 | 1006.3 |
| 20260504202602 | 24 | 299 | 1.6 | 11.3 | 0.00 | 0.00 | 0.00 | 20 | 1006.3 |
| 20260504202500 | 24 | 306 | 6.4 | 11.3 | 0.00 | 0.00 | 0.00 | 18 | 1006.4 |
| 20260504202401 | 24 | 232 | 6.4 | 11.3 | 0.00 | 0.00 | 0.00 | 18 | 1006.4 |
| 20260504202301 | 24 | 202 | 8.0 | 12.9 | 0.00 | 0.00 | 0.00 | 18 | 1006.4 |
| 20260504202200 | 24 | 210 | 3.2 | 12.9 | 0.00 | 0.00 | 0.00 | 17 | 1006.4 |
| 20260504202101 | 23 | 169 | 3.2 | 12.9 | 0.00 | 0.00 | 0.00 | 18 | 1006.4 |
| 20260504202001 | 23 | 225 | 3.2 | 12.9 | 0.00 | 0.00 | 0.00 | 18 | 1006.4 |
| 20260504201901 | 23 | 202 | 1.6 | 12.9 | 0.00 | 0.00 | 0.00 | 23 | 1006.4 |
| 20260504201800 | 23 | 212 | 4.8 | 12.9 | 0.00 | 0.00 | 0.00 | 23 | 1006.4 |
| 20260504201601 | 23 | 268 | 1.6 | 12.9 | 0.00 | 0.00 | 0.00 | 20 | 1006.5 |
| 20260504201500 | 23 | 186 | 4.8 | 12.9 | 0.00 | 0.00 | 0.00 | 20 | 1006.5 |
| 20260504201400 | 23 | 328 | 4.8 | 12.9 | 0.00 | 0.00 | 0.00 | 19 | 1006.5 |
| 20260504201302 | 23 | 310 | 1.6 | 6.4 | 0.00 | 0.00 | 0.00 | 22 | 1006.5 |
| 20260504201201 | 23 | 325 | 1.6 | 6.4 | 0.00 | 0.00 | 0.00 | 21 | 1006.6 |
| 20260504201101 | 23 | 273 | 6.4 | 6.4 | 0.00 | 0.00 | 0.00 | 19 | 1006.6 |
| 20260504201001 | 23 | 261 | 4.8 | 6.4 | 0.00 | 0.00 | 0.00 | 19 | 1006.6 |
| 20260504200900 | 23 | 325 | 0.0 | 6.4 | 0.00 | 0.00 | 0.00 | 19 | 1006.7 |
| 20260504200801 | 23 | 325 | 1.6 | 9.7 | 0.00 | 0.00 | 0.00 | 21 | 1006.6 |
| 20260504200701 | 23 | 310 | 3.2 | 11.3 | 0.00 | 0.00 | 0.00 | 21 | 1006.6 |
| 20260504200600 | 23 | 304 | 4.8 | 17.7 | 0.00 | 0.00 | 0.00 | 20 | 1006.6 |
| 20260504200501 | 22 | 322 | 4.8 | 17.7 | 0.00 | 0.00 | 0.00 | 20 | 1006.6 |
| 20260504200401 | 22 | 332 | 3.2 | 17.7 | 0.00 | 0.00 | 0.00 | 22 | 1006.7 |
| 20260504200300 | 22 | 327 | 4.8 | 17.7 | 0.00 | 0.00 | 0.00 | 23 | 1006.6 |
| 20260504200004 | 22 | 215 | 4.8 | 17.7 | 0.00 | 0.00 | 0.00 | 20 | 1006.6 |
| 20260504195901 | 22 | 304 | 4.8 | 17.7 | 0.00 | 0.00 | 0.00 | 19 | 1006.7 |
| 20260504195801 | 23 | 332 | 1.6 | 17.7 | 0.00 | 0.00 | 0.00 | 20 | 1006.7 |
| 20260504195601 | 23 | 228 | 3.2 | 11.3 | 0.00 | 0.00 | 0.00 | 24 | 1006.7 |
| 20260504195503 | 23 | 215 | 3.2 | 11.3 | 0.00 | 0.00 | 0.00 | 21 | 1006.7 |
| 20260504195301 | 23 | 259 | 3.2 | 11.3 | 0.00 | 0.00 | 0.00 | 22 | 1006.6 |
| 20260504195001 | 23 | 280 | 6.4 | 12.9 | 0.00 | 0.00 | 0.00 | 21 | 1006.7 |
| 20260504194900 | 23 | 244 | 6.4 | 12.9 | 0.00 | 0.00 | 0.00 | 19 | 1006.7 |
| 20260504194801 | 23 | 154 | 3.2 | 12.9 | 0.00 | 0.00 | 0.00 | 19 | 1006.8 |
| 20260504194701 | 23 | 227 | 3.2 | 12.9 | 0.00 | 0.00 | 0.00 | 20 | 1006.8 |
| 20260504194601 | 24 | 198 | 6.4 | 12.9 | 0.00 | 0.00 | 0.00 | 20 | 1006.8 |
| 20260504194502 | 24 | 208 | 3.2 | 12.9 | 0.00 | 0.00 | 0.00 | 19 | 1006.8 |
| 20260504194401 | 24 | 250 | 3.2 | 12.9 | 0.00 | 0.00 | 0.00 | 21 | 1006.8 |
| 20260504194301 | 24 | 265 | 6.4 | 12.9 | 0.00 | 0.00 | 0.00 | 22 | 1006.8 |
| 20260504194102 | 24 | 257 | 11.3 | 12.9 | 0.00 | 0.00 | 0.00 | 19 | 1006.9 |
| 20260504194001 | 24 | 275 | 12.9 | 12.9 | 0.00 | 0.00 | 0.00 | 21 | 1006.8 |
| 20260504193801 | 24 | 340 | 3.2 | 8.0 | 0.00 | 0.00 | 0.00 | 22 | 1006.8 |
| 20260504193702 | 24 | 332 | 3.2 | 8.0 | 0.00 | 0.00 | 0.00 | 22 | 1006.9 |
| 20260504193501 | 24 | 313 | 8.0 | 8.0 | 0.00 | 0.00 | 0.00 | 20 | 1006.9 |
| 20260504193400 | 24 | 330 | 4.8 | 8.0 | 0.00 | 0.00 | 0.00 | 22 | 1006.9 |
| 20260504193301 | 24 | 281 | 4.8 | 8.0 | 0.00 | 0.00 | 0.00 | 21 | 1006.9 |
| 20260504193201 | 24 | 291 | 1.6 | 8.0 | 0.00 | 0.00 | 0.00 | 21 | 1006.9 |
| 20260504193100 | 24 | 250 | 0.0 | 8.0 | 0.00 | 0.00 | 0.00 | 21 | 1006.9 |
| 20260504193001 | 23 | 351 | 1.6 | 8.0 | 0.00 | 0.00 | 0.00 | 22 | 1006.9 |
| 20260504192801 | 23 | 219 | 4.8 | 8.0 | 0.00 | 0.00 | 0.00 | 24 | 1006.9 |
| 20260504192601 | 23 | 300 | 6.4 | 8.0 | 0.00 | 0.00 | 0.00 | 22 | 1006.9 |
| 20260504192501 | 23 | 207 | 0.0 | 8.0 | 0.00 | 0.00 | 0.00 | 25 | 1006.9 |
| 20260504192301 | 23 | 331 | 1.6 | 8.0 | 0.00 | 0.00 | 0.00 | 26 | 1007.0 |
| 20260504192202 | 23 | 160 | 1.6 | 8.0 | 0.00 | 0.00 | 0.00 | 22 | 1007.0 |
| 20260504192101 | 23 | 153 | 3.2 | 8.0 | 0.00 | 0.00 | 0.00 | 20 | 1006.9 |
| 20260504192002 | 23 | 166 | 4.8 | 8.0 | 0.00 | 0.00 | 0.00 | 20 | 1007.0 |
| 20260504191800 | 23 | 178 | 3.2 | 8.0 | 0.00 | 0.00 | 0.00 | 21 | 1007.1 |
| 20260504191701 | 23 | 261 | 8.0 | 8.0 | 0.00 | 0.00 | 0.00 | 20 | 1007.0 |
| 20260504191600 | 23 | 252 | 4.8 | 8.0 | 0.00 | 0.00 | 0.00 | 22 | 1007.0 |
| 20260504191502 | 23 | 215 | 6.4 | 8.0 | 0.00 | 0.00 | 0.00 | 20 | 1007.0 |
| 20260504191402 | 23 | 221 | 3.2 | 11.3 | 0.00 | 0.00 | 0.00 | 20 | 1007.0 |
| 20260504191201 | 23 | 275 | 6.4 | 11.3 | 0.00 | 0.00 | 0.00 | 20 | 1007.1 |
| 20260504191101 | 23 | 351 | 3.2 | 14.5 | 0.00 | 0.00 | 0.00 | 20 | 1007.1 |
| 20260504191002 | 23 | 323 | 3.2 | 14.5 | 0.00 | 0.00 | 0.00 | 19 | 1007.1 |
| 20260504190900 | 23 | 323 | 1.6 | 14.5 | 0.00 | 0.00 | 0.00 | 20 | 1007.1 |
| 20260504190701 | 23 | 319 | 3.2 | 14.5 | 0.00 | 0.00 | 0.00 | 21 | 1007.1 |
| 20260504190600 | 23 | 260 | 1.6 | 14.5 | 0.00 | 0.00 | 0.00 | 20 | 1007.2 |
| 20260504190501 | 23 | 308 | 3.2 | 14.5 | 0.00 | 0.00 | 0.00 | 19 | 1007.2 |
| 20260504190402 | 23 | 277 | 1.6 | 14.5 | 0.00 | 0.00 | 0.00 | 21 | 1007.2 |
| 20260504190300 | 23 | 277 | 4.8 | 14.5 | 0.00 | 0.00 | 0.00 | 20 | 1007.2 |
| 20260504190201 | 23 | 355 | 0.0 | 11.3 | 0.00 | 0.00 | 0.00 | 23 | 1007.2 |
| 20260504185858 | 22 | 216 | 1.6 | 11.3 | 0.00 | 0.00 | 0.00 | 22 | 1007.2 |
| 20260504185759 | 22 | 251 | 6.4 | 11.3 | 0.00 | 0.00 | 0.00 | 24 | 1007.2 |
| 20260504185700 | 22 | 277 | 1.6 | 11.3 | 0.00 | 0.00 | 0.00 | 21 | 1007.2 |
| 20260504185601 | 22 | 227 | 6.4 | 11.3 | 0.00 | 0.00 | 0.00 | 23 | 1007.2 |
| 20260504185459 | 22 | 184 | 4.8 | 11.3 | 0.00 | 0.00 | 0.00 | 21 | 1007.2 |
| 20260504185358 | 22 | 209 | 9.7 | 11.3 | 0.00 | 0.00 | 0.00 | 23 | 1007.2 |
| 20260504185258 | 22 | 223 | 1.6 | 11.3 | 0.00 | 0.00 | 0.00 | 22 | 1007.2 |
| 20260504185100 | 22 | 221 | 4.8 | 11.3 | 0.00 | 0.00 | 0.00 | 23 | 1007.3 |
| 20260504185000 | 22 | 264 | 9.7 | 9.7 | 0.00 | 0.00 | 0.00 | 21 | 1007.3 |
| 20260504184859 | 22 | 205 | 4.8 | 11.3 | 0.00 | 0.00 | 0.00 | 24 | 1007.3 |
| 20260504184800 | 22 | 232 | 4.8 | 11.3 | 0.00 | 0.00 | 0.00 | 22 | 1007.3 |
| 20260504184700 | 22 | 234 | 4.8 | 11.3 | 0.00 | 0.00 | 0.00 | 20 | 1007.2 |
| 20260504184559 | 22 | 202 | 6.4 | 11.3 | 0.00 | 0.00 | 0.00 | 20 | 1007.3 |
| 20260504184501 | 22 | 229 | 8.0 | 11.3 | 0.00 | 0.00 | 0.00 | 22 | 1007.2 |
| 20260504184359 | 22 | 206 | 1.6 | 11.3 | 0.00 | 0.00 | 0.00 | 23 | 1007.3 |
| 20260504184259 | 22 | 209 | 4.8 | 11.3 | 0.00 | 0.00 | 0.00 | 21 | 1007.3 |
| 20260504184059 | 22 | 179 | 4.8 | 11.3 | 0.00 | 0.00 | 0.00 | 20 | 1007.3 |
| 20260504184000 | 23 | 150 | 3.2 | 11.3 | 0.00 | 0.00 | 0.00 | 20 | 1007.4 |
| 20260504183859 | 23 | 220 | 8.0 | 12.9 | 0.00 | 0.00 | 0.00 | 21 | 1007.4 |
| 20260504183759 | 23 | 158 | 0.0 | 11.3 | 0.00 | 0.00 | 0.00 | 21 | 1007.4 |
| 20260504183659 | 23 | 137 | 4.8 | 11.3 | 0.00 | 0.00 | 0.00 | 19 | 1007.4 |
| 20260504183500 | 23 | 259 | 3.2 | 11.3 | 0.00 | 0.00 | 0.00 | 20 | 1007.5 |
| 20260504183359 | 23 | 208 | 9.7 | 11.3 | 0.00 | 0.00 | 0.00 | 20 | 1007.5 |
| 20260504183258 | 23 | 253 | 4.8 | 9.7 | 0.00 | 0.00 | 0.00 | 21 | 1007.5 |
| 20260504183159 | 23 | 234 | 6.4 | 9.7 | 0.00 | 0.00 | 0.00 | 20 | 1007.5 |
| 20260504183059 | 23 | 176 | 4.8 | 6.4 | 0.00 | 0.00 | 0.00 | 20 | 1007.5 |
| 20260504183000 | 23 | 210 | 3.2 | 4.8 | 0.00 | 0.00 | 0.00 | 20 | 1007.5 |
| 20260504182900 | 23 | 71 | 1.6 | 4.8 | 0.00 | 0.00 | 0.00 | 19 | 1007.6 |
| 20260504182659 | 23 | 96 | 3.2 | 4.8 | 0.00 | 0.00 | 0.00 | 24 | 1007.6 |
| 20260504182459 | 22 | 65 | 1.6 | 4.8 | 0.00 | 0.00 | 0.00 | 22 | 1007.6 |
| 20260504182400 | 22 | 217 | 1.6 | 4.8 | 0.00 | 0.00 | 0.00 | 22 | 1007.6 |
| 20260504182259 | 22 | 215 | 3.2 | 4.8 | 0.00 | 0.00 | 0.00 | 19 | 1007.6 |
| 20260504182159 | 22 | 234 | 1.6 | 8.0 | 0.00 | 0.00 | 0.00 | 20 | 1007.6 |
| 20260504182100 | 22 | 200 | 1.6 | 11.3 | 0.00 | 0.00 | 0.00 | 20 | 1007.6 |
| 20260504181859 | 22 | 54 | 3.2 | 11.3 | 0.00 | 0.00 | 0.00 | 20 | 1007.6 |
| 20260504181759 | 22 | 341 | 3.2 | 11.3 | 0.00 | 0.00 | 0.00 | 23 | 1007.7 |
| 20260504181700 | 22 | 327 | 1.6 | 11.3 | 0.00 | 0.00 | 0.00 | 19 | 1007.8 |
| 20260504181558 | 22 | 323 | 0.0 | 11.3 | 0.00 | 0.00 | 0.00 | 22 | 1007.8 |
| 20260504181500 | 22 | 351 | 0.0 | 11.3 | 0.00 | 0.00 | 0.00 | 19 | 1007.8 |
| 20260504181259 | 21 | 286 | 3.2 | 14.5 | 0.00 | 0.00 | 0.00 | 21 | 1007.9 |
| 20260504181159 | 21 | 281 | 4.8 | 14.5 | 0.00 | 0.00 | 0.00 | 22 | 1007.8 |
| 20260504181100 | 21 | 289 | 6.4 | 14.5 | 0.00 | 0.00 | 0.00 | 25 | 1007.8 |
| 20260504181000 | 21 | 250 | 0.0 | 14.5 | 0.00 | 0.00 | 0.00 | 23 | 1007.8 |
| 20260504180759 | 21 | 212 | 1.6 | 14.5 | 0.00 | 0.00 | 0.00 | 20 | 1007.9 |
| 20260504180659 | 21 | 219 | 4.8 | 14.5 | 0.00 | 0.00 | 0.00 | 20 | 1007.8 |
| 20260504180559 | 21 | 213 | 11.3 | 14.5 | 0.00 | 0.00 | 0.00 | 25 | 1007.8 |
| 20260504180459 | 21 | 233 | 8.0 | 14.5 | 0.00 | 0.00 | 0.00 | 25 | 1007.8 |
| 20260504180359 | 21 | 159 | 1.6 | 11.3 | 0.00 | 0.00 | 0.00 | 22 | 1007.8 |
| 20260504180259 | 21 | 166 | 6.4 | 11.3 | 0.00 | 0.00 | 0.00 | 21 | 1007.8 |
| 20260504180201 | 22 | 155 | 3.2 | 11.3 | 0.00 | 0.00 | 0.00 | 20 | 1007.9 |
| 20260504180100 | 22 | 196 | 8.0 | 11.3 | 0.00 | 0.00 | 0.00 | 22 | 1007.8 |
| 20260504180005 | 22 | 248 | 3.2 | 11.3 | 0.00 | 0.00 | 0.00 | 23 | 1007.8 |
| 20260504175900 | 22 | 255 | 3.2 | 11.3 | 0.00 | 0.00 | 0.00 | 22 | 1007.9 |
| 20260504175701 | 22 | 252 | 1.6 | 11.3 | 0.00 | 0.00 | 0.00 | 22 | 1007.9 |
| 20260504175400 | 22 | 267 | 1.6 | 11.3 | 0.00 | 0.00 | 0.00 | 24 | 1007.9 |
| 20260504175301 | 22 | 171 | 1.6 | 11.3 | 0.00 | 0.00 | 0.00 | 21 | 1007.9 |
| 20260504175200 | 22 | 300 | 1.6 | 11.3 | 0.00 | 0.00 | 0.00 | 21 | 1007.9 |
| 20260504175101 | 22 | 229 | 1.6 | 11.3 | 0.00 | 0.00 | 0.00 | 21 | 1007.9 |
| 20260504175000 | 22 | 227 | 6.4 | 11.3 | 0.00 | 0.00 | 0.00 | 21 | 1007.9 |
| 20260504174901 | 22 | 217 | 6.4 | 9.7 | 0.00 | 0.00 | 0.00 | 22 | 1007.9 |
| 20260504174801 | 22 | 275 | 3.2 | 9.7 | 0.00 | 0.00 | 0.00 | 25 | 1007.9 |
| 20260504174601 | 22 | 216 | 3.2 | 1054.1 | 4.50 | 0.00 | 0.00 | 26 | |
| 20260504174501 | 22 | 257 | 4.8 | 9.7 | 0.00 | 0.00 | 0.00 | 25 | 1007.9 |
| 20260504174401 | 22 | 236 | 4.8 | 9.7 | 0.00 | 0.00 | 0.00 | 23 | 1008.0 |
| 20260504174300 | 22 | 193 | 6.4 | 9.7 | 0.00 | 0.00 | 0.00 | 26 | 1008.0 |
| 20260504174201 | 21 | 202 | 1.6 | 9.7 | 0.00 | 0.00 | 0.00 | 25 | 1008.0 |
| 20260504174102 | 21 | 223 | 1.6 | 9.7 | 0.00 | 0.00 | 0.00 | 28 | 1008.0 |
| 20260504174000 | 21 | 201 | 3.2 | 9.7 | 0.00 | 0.00 | 0.00 | 27 | 1008.0 |
| 20260504173900 | 21 | 234 | 3.2 | 9.7 | 0.00 | 0.00 | 0.00 | 29 | 1008.0 |
| 20260504173800 | 21 | 158 | 1.6 | 9.7 | 0.00 | 0.00 | 0.00 | 26 | 1008.0 |
| 20260504173700 | 21 | 115 | 1.6 | 9.7 | 0.00 | 0.00 | 0.00 | 22 | 1008.0 |
| 20260504173600 | 21 | 153 | 1.6 | 9.7 | 0.00 | 0.00 | 0.00 | 24 | 1008.0 |
| 20260504173501 | 21 | 140 | 6.4 | 9.7 | 0.00 | 0.00 | 0.00 | 23 | 1008.0 |
| 20260504173400 | 21 | 154 | 3.2 | 9.7 | 0.00 | 0.00 | 0.00 | 23 | 1008.0 |
| 20260504173301 | 21 | 188 | 0.0 | 9.7 | 0.00 | 0.00 | 0.00 | 25 | 1008.0 |
| 20260504173201 | 21 | 234 | 6.4 | 9.7 | 0.00 | 0.00 | 0.00 | 25 | 1008.0 |
| 20260504173100 | 21 | 237 | 6.4 | 9.7 | 0.00 | 0.00 | 0.00 | 23 | 1008.0 |
| 20260504173001 | 21 | 189 | 4.8 | 9.7 | 0.00 | 0.00 | 0.00 | 22 | 1008.0 |
| 20260504172902 | 21 | 163 | 3.2 | 9.7 | 0.00 | 0.00 | 0.00 | 22 | 1008.1 |
| 20260504172800 | 21 | 175 | 4.8 | 9.7 | 0.00 | 0.00 | 0.00 | 24 | 1008.1 |
| 20260504172701 | 21 | 221 | 4.8 | 9.7 | 0.00 | 0.00 | 0.00 | 24 | 1008.1 |
| 20260504172601 | 21 | 210 | 1.6 | 9.7 | 0.00 | 0.00 | 0.00 | 23 | 1008.1 |
| 20260504172502 | 21 | 143 | 1.6 | 9.7 | 0.00 | 0.00 | 0.00 | 23 | 1008.1 |
| 20260504172401 | 21 | 225 | 3.2 | 9.7 | 0.00 | 0.00 | 0.00 | 23 | 1008.1 |
| 20260504172301 | 21 | 163 | 6.4 | 9.7 | 0.00 | 0.00 | 0.00 | 22 | 1008.2 |
| 20260504172101 | 21 | 177 | 3.2 | 8.0 | 0.00 | 0.00 | 0.00 | 26 | 1008.1 |
| 20260504172001 | 21 | 223 | 3.2 | 8.0 | 0.00 | 0.00 | 0.00 | 25 | 1008.1 |
| 20260504171901 | 21 | 281 | 1.6 | 9.7 | 0.00 | 0.00 | 0.00 | 28 | 1008.1 |
| 20260504171801 | 20 | 27 | 1.6 | 9.7 | 0.00 | 0.00 | 0.00 | 26 | 1008.1 |
| 20260504171700 | 20 | 27 | 1.6 | 9.7 | 0.00 | 0.00 | 0.00 | 25 | 1008.1 |
| 20260504171601 | 20 | 86 | 1.6 | 9.7 | 0.00 | 0.00 | 0.00 | 23 | 1008.1 |
| 20260504171502 | 20 | 178 | 1.6 | 9.7 | 0.00 | 0.00 | 0.00 | 24 | 1008.2 |
| 20260504171400 | 20 | 205 | 4.8 | 9.7 | 0.00 | 0.00 | 0.00 | 23 | 1008.2 |
| 20260504171300 | 20 | 163 | 3.2 | 11.3 | 0.00 | 0.00 | 0.00 | 23 | 1008.2 |
| 20260504171202 | 20 | 175 | 1.6 | 11.3 | 0.00 | 0.00 | 0.00 | 23 | 1008.2 |
| 20260504171100 | 20 | 187 | 1.6 | 11.3 | 0.00 | 0.00 | 0.00 | 24 | 1008.3 |
| 20260504171002 | 20 | 186 | 8.0 | 11.3 | 0.00 | 0.00 | 0.00 | 26 | 1008.2 |
| 20260504170900 | 20 | 242 | 6.4 | 11.3 | 0.00 | 0.00 | 0.00 | 24 | 1008.2 |
| 20260504170802 | 20 | 245 | 6.4 | 11.3 | 0.00 | 0.00 | 0.00 | 24 | 1008.2 |
| 20260504170600 | 20 | 216 | 1.6 | 11.3 | 0.00 | 0.00 | 0.00 | 25 | 1008.2 |
| 20260504170501 | 20 | 215 | 4.8 | 11.3 | 0.00 | 0.00 | 0.00 | 23 | 1008.2 |
| 20260504170400 | 20 | 207 | 6.4 | 11.3 | 0.00 | 0.00 | 0.00 | 24 | 1008.2 |
| 20260504170300 | 20 | 185 | 3.2 | 11.3 | 0.00 | 0.00 | 0.00 | 25 | 1008.2 |
| 20260504170201 | 20 | 176 | 4.8 | 11.3 | 0.00 | 0.00 | 0.00 | 24 | 1008.2 |
| 20260504160401 | 19 | 224 | 4.8 | 8.0 | 0.00 | 0.00 | 0.00 | 26 | 1008.2 |
| 20260504160300 | 19 | 306 | 3.2 | 6.4 | 0.00 | 0.00 | 0.00 | 29 | 1008.3 |
| 20260504160201 | 19 | 196 | 1.6 | 6.4 | 0.00 | 0.00 | 0.00 | 25 | 1008.2 |
| 20260504151001 | 16 | 163 | 6.4 | 9.7 | 0.00 | 0.00 | 0.00 | 27 | 1008.4 |
| 20260504150901 | 16 | 130 | 1.6 | 9.7 | 0.00 | 0.00 | 0.00 | 29 | 1008.3 |
| 20260504150800 | 16 | 60 | 1.6 | 9.7 | 0.00 | 0.00 | 0.00 | 29 | 1008.4 |
| 20260504150701 | 16 | 105 | 1.6 | 9.7 | 0.00 | 0.00 | 0.00 | 29 | 1008.4 |
| 20260504150500 | 16 | 109 | 3.2 | 9.7 | 0.00 | 0.00 | 0.00 | 29 | 1008.4 |
| 20260504150400 | 16 | 153 | 6.4 | 6.4 | 0.00 | 0.00 | 0.00 | 35 | 1008.4 |
| 20260504150201 | 15 | 105 | 0.0 | 9.7 | 0.00 | 0.00 | 0.00 | 30 | 1008.4 |
| 20260504141301 | 11 | 77 | 1.6 | 4.8 | 0.00 | 0.00 | 0.00 | 43 | 1008.5 |
| 20260504141200 | 11 | 77 | 0.0 | 4.8 | 0.00 | 0.00 | 0.00 | 42 | 1008.5 |
| 20260504141001 | 11 | 82 | 3.2 | 4.8 | 0.00 | 0.00 | 0.00 | 43 | 1008.5 |
| 20260504140901 | 11 | 78 | 3.2 | 4.8 | 0.00 | 0.00 | 0.00 | 43 | 1008.5 |
| 20260504140800 | 11 | 89 | 3.2 | 4.8 | 0.00 | 0.00 | 0.00 | 46 | 1008.5 |
| 20260504140700 | 11 | 89 | 3.2 | 3.2 | 0.00 | 0.00 | 0.00 | 44 | 1008.6 |
| 20260504140600 | 11 | 102 | 1.6 | 3.2 | 0.00 | 0.00 | 0.00 | 42 | 1008.5 |
| 20260504140200 | 11 | 102 | 1.6 | 6.4 | 0.00 | 0.00 | 0.00 | 43 | 1008.6 |
| 20260504130759 | 11 | 132 | 4.8 | 8.0 | 0.00 | 0.00 | 0.00 | 39 | 1008.5 |
| 20260504130700 | 11 | 169 | 3.2 | 4.8 | 0.00 | 0.00 | 0.00 | 40 | 1008.5 |
| 20260504130500 | 11 | 82 | 0.0 | 3.2 | 0.00 | 0.00 | 0.00 | 39 | 1008.5 |
| 20260504130400 | 11 | 82 | 0.0 | 3.2 | 0.00 | 0.00 | 0.00 | 38 | 1008.5 |
| 20260504130300 | 11 | 82 | 0.0 | 3.2 | 0.00 | 0.00 | 0.00 | 38 | 1008.4 |